Observation data for Crowell on 02/14/2020      Previous  Date  Next       Current Mesonet Observations  Soil Data  Daily Summary Page  Observations in Plain Language
KCR1 140600Z 07007KT M02/M07 A3041 RMK A01 T10241073  RH  069%=      5-min Rain = 0
KCR1 140601Z 06007KT M02/M07 A3041 RMK A01 T10241074  RH  069%=      5-min Rain = 0
KCR1 140602Z 06007KT M02/M07 A3041 RMK A01 T10241074  RH  068%=      5-min Rain = 0
KCR1 140603Z 07007KT M02/M08 A3041 RMK A01 T10241076  RH  068%=      5-min Rain = 0
KCR1 140604Z 07006KT M02/M08 A3041 RMK A01 T10241075  RH  068%=      5-min Rain = 0
KCR1 140605Z 07006KT M02/M07 A3041 RMK A01 T10241074  RH  069%=      5-min Rain = 0
KCR1 140606Z 06005KT M02/M07 A3041 RMK A01 T10241074  RH  069%=      5-min Rain = 0
KCR1 140607Z 07005KT M02/M07 A3041 RMK A01 T10241072  RH  069%=      5-min Rain = 0
KCR1 140608Z 08005KT M02/M07 A3041 RMK A01 T10241072  RH  069%=      5-min Rain = 0
KCR1 140609Z 07005KT M03/M07 A3041 RMK A01 T10251073  RH  069%=      5-min Rain = 0
KCR1 140610Z 07005KT M03/M07 A3041 RMK A01 T10251073  RH  069%=      5-min Rain = 0
KCR1 140611Z 07005KT M03/M07 A3041 RMK A01 T10251072  RH  070%=      5-min Rain = 0
KCR1 140612Z 07005KT M03/M07 A3041 RMK A01 T10251072  RH  070%=      5-min Rain = 0
KCR1 140613Z 07006KT M03/M07 A3041 RMK A01 T10261074  RH  070%=      5-min Rain = 0
KCR1 140614Z 07005KT M03/M07 A3041 RMK A01 T10261074  RH  069%=      5-min Rain = 0
KCR1 140615Z 06005KT M03/M07 A3041 RMK A01 T10261073  RH  070%=      5-min Rain = 0
KCR1 140616Z 06005KT M03/M07 A3041 RMK A01 T10261071  RH  071%=      5-min Rain = 0
KCR1 140617Z 07005KT M03/M07 A3041 RMK A01 T10251071  RH  071%=      5-min Rain = 0
KCR1 140618Z 06006KT M03/M07 A3041 RMK A01 T10251071  RH  071%=      5-min Rain = 0
KCR1 140619Z 07005KT M03/M07 A3041 RMK A01 T10261072  RH  070%=      5-min Rain = 0
KCR1 140620Z 07006KT M03/M07 A3041 RMK A01 T10261072  RH  070%=      5-min Rain = 0
KCR1 140621Z 07007KT M03/M07 A3041 RMK A01 T10261071  RH  071%=      5-min Rain = 0
KCR1 140622Z 07007KT M03/M07 A3041 RMK A01 T10261072  RH  071%=      5-min Rain = 0
KCR1 140623Z 07006KT M03/M07 A3041 RMK A01 T10261074  RH  070%=      5-min Rain = 0
KCR1 140624Z 07006KT M03/M07 A3041 RMK A01 T10261074  RH  069%=      5-min Rain = 0
KCR1 140625Z 07005KT M03/M07 A3041 RMK A01 T10261073  RH  070%=      5-min Rain = 0
KCR1 140626Z 07005KT M03/M07 A3041 RMK A01 T10261072  RH  070%=      5-min Rain = 0
KCR1 140627Z 08005KT M03/M07 A3041 RMK A01 T10261073  RH  070%=      5-min Rain = 0
KCR1 140628Z 08005KT M03/M07 A3041 RMK A01 T10261072  RH  071%=      5-min Rain = 0
KCR1 140629Z 08005KT M03/M07 A3041 RMK A01 T10271073  RH  071%=      5-min Rain = 0
KCR1 140630Z 07005KT M03/M07 A3041 RMK A01 T10271073  RH  071%=      5-min Rain = 0
KCR1 140631Z 07005KT M03/M07 A3041 RMK A01 T10271071  RH  072%=      5-min Rain = 0
KCR1 140632Z 08005KT M03/M07 A3041 RMK A01 T10281071  RH  072%=      5-min Rain = 0
KCR1 140633Z 07006KT M03/M07 A3041 RMK A01 T10281071  RH  072%=      5-min Rain = 0
KCR1 140634Z 07005KT M03/M07 A3041 RMK A01 T10271071  RH  072%=      5-min Rain = 0
KCR1 140635Z 07005KT M03/M07 A3041 RMK A01 T10281071  RH  072%=      5-min Rain = 0
KCR1 140636Z 08006KT M03/M07 A3041 RMK A01 T10281071  RH  072%=      5-min Rain = 0
KCR1 140637Z 07006KT M03/M07 A3041 RMK A01 T10281072  RH  072%=      5-min Rain = 0
KCR1 140638Z 07006KT M03/M07 A3041 RMK A01 T10281072  RH  072%=      5-min Rain = 0
KCR1 140639Z 07005KT M03/M07 A3041 RMK A01 T10281072  RH  072%=      5-min Rain = 0
KCR1 140640Z 07006KT M03/M07 A3041 RMK A01 T10281071  RH  072%=      5-min Rain = 0
KCR1 140641Z 07005KT M03/M07 A3041 RMK A01 T10281071  RH  072%=      5-min Rain = 0
KCR1 140642Z 07004KT M03/M07 A3041 RMK A01 T10281070  RH  073%=      5-min Rain = 0
KCR1 140643Z 07004KT M03/M07 A3041 RMK A01 T10281069  RH  073%=      5-min Rain = 0
KCR1 140644Z 07004KT M03/M07 A3041 RMK A01 T10281069  RH  074%=      5-min Rain = 0
KCR1 140645Z 07004KT M03/M07 A3041 RMK A01 T10281070  RH  073%=      5-min Rain = 0
KCR1 140646Z 07004KT M03/M07 A3041 RMK A01 T10281069  RH  074%=      5-min Rain = 0
KCR1 140647Z 07004KT M03/M07 A3041 RMK A01 T10281068  RH  074%=      5-min Rain = 0
KCR1 140648Z 07005KT M03/M07 A3041 RMK A01 T10281068  RH  074%=      5-min Rain = 0
KCR1 140649Z 07006KT M03/M07 A3041 RMK A01 T10281069  RH  073%=      5-min Rain = 0
KCR1 140650Z 07005KT M03/M07 A3041 RMK A01 T10281070  RH  073%=      5-min Rain = 0
KCR1 140651Z 07005KT M03/M07 A3041 RMK A01 T10281070  RH  073%=      5-min Rain = 0
KCR1 140652Z 08006KT M03/M07 A3041 RMK A01 T10281070  RH  073%=      5-min Rain = 0
KCR1 140653Z 08005KT M03/M07 A3041 RMK A01 T10281070  RH  073%=      5-min Rain = 0
KCR1 140654Z 08006KT M03/M07 A304 RMK A01 T10281071  RH  072%=      5-min Rain = 0
KCR1 140655Z 08005KT M03/M07 A304 RMK A01 T10281071  RH  072%=      5-min Rain = 0
KCR1 140656Z 07005KT M03/M07 A304 RMK A01 T10281070  RH  073%=      5-min Rain = 0
KCR1 140657Z 08005KT M03/M07 A304 RMK A01 T10291070  RH  073%=      5-min Rain = 0
KCR1 140658Z 08005KT M03/M07 A304 RMK A01 T10291070  RH  074%=      5-min Rain = 0
KCR1 140659Z 08005KT M03/M07 A304 RMK A01 T10291070  RH  073%=      5-min Rain = 0
KCR1 140700Z 08005KT M03/M07 A304 RMK A01 T10301071  RH  073%=      5-min Rain = 0
KCR1 140701Z 08005KT M03/M07 A3041 RMK A01 T10301071  RH  073%=      5-min Rain = 0
KCR1 140702Z 07004KT M03/M07 A3041 RMK A01 T10301071  RH  073%=      5-min Rain = 0
KCR1 140703Z 07005KT M03/M07 A3041 RMK A01 T10301070  RH  074%=      5-min Rain = 0
KCR1 140704Z 07004KT M03/M07 A3041 RMK A01 T10291070  RH  074%=      5-min Rain = 0
KCR1 140705Z 06004KT M03/M07 A3041 RMK A01 T10301069  RH  074%=      5-min Rain = 0
KCR1 140706Z 06004KT M03/M07 A3041 RMK A01 T10301068  RH  075%=      5-min Rain = 0
KCR1 140707Z 06004KT M03/M07 A3041 RMK A01 T10301067  RH  076%=      5-min Rain = 0
KCR1 140708Z 06004KT M03/M07 A3041 RMK A01 T10301067  RH  075%=      5-min Rain = 0
KCR1 140709Z 05004KT M03/M07 A3041 RMK A01 T10301067  RH  075%=      5-min Rain = 0
KCR1 140710Z 05005KT M03/M07 A3041 RMK A01 T10301067  RH  075%=      5-min Rain = 0
KCR1 140711Z 05005KT M03/M07 A3041 RMK A01 T10301070  RH  074%=      5-min Rain = 0
KCR1 140712Z 06005KT M03/M07 A3041 RMK A01 T10291071  RH  073%=      5-min Rain = 0
KCR1 140713Z 06005KT M03/M07 A3041 RMK A01 T10291070  RH  073%=      5-min Rain = 0
KCR1 140714Z 06005KT M03/M07 A3041 RMK A01 T10291070  RH  073%=      5-min Rain = 0
KCR1 140715Z 07004KT M03/M07 A3041 RMK A01 T10291071  RH  073%=      5-min Rain = 0
KCR1 140716Z 07005KT M03/M07 A3041 RMK A01 T10291071  RH  073%=      5-min Rain = 0
KCR1 140717Z 07005KT M03/M07 A3041 RMK A01 T10291071  RH  073%=      5-min Rain = 0
KCR1 140718Z 07005KT M03/M07 A304 RMK A01 T10291070  RH  073%=      5-min Rain = 0
KCR1 140719Z 07005KT M03/M07 A304 RMK A01 T10301070  RH  074%=      5-min Rain = 0
KCR1 140720Z 06005KT M03/M07 A304 RMK A01 T10301070  RH  074%=      5-min Rain = 0
KCR1 140721Z 06005KT M03/M07 A304 RMK A01 T10301070  RH  074%=      5-min Rain = 0
KCR1 140722Z 06005KT M03/M07 A304 RMK A01 T10301071  RH  074%=      5-min Rain = 0
KCR1 140723Z 06005KT M03/M07 A304 RMK A01 T10301070  RH  074%=      5-min Rain = 0
KCR1 140724Z 06005KT M03/M07 A304 RMK A01 T10301070  RH  074%=      5-min Rain = 0
KCR1 140725Z 06005KT M03/M07 A304 RMK A01 T10301069  RH  075%=      5-min Rain = 0
KCR1 140726Z 06005KT M03/M07 A304 RMK A01 T10301070  RH  074%=      5-min Rain = 0
KCR1 140727Z 06006KT M03/M07 A304 RMK A01 T10301071  RH  074%=      5-min Rain = 0
KCR1 140728Z 06005KT M03/M07 A304 RMK A01 T10301070  RH  074%=      5-min Rain = 0
KCR1 140729Z 06005KT M03/M07 A304 RMK A01 T10291071  RH  073%=      5-min Rain = 0
KCR1 140730Z 06005KT M03/M07 A304 RMK A01 T10291070  RH  073%=      5-min Rain = 0
KCR1 140731Z 06005KT M03/M07 A3041 RMK A01 T10291069  RH  074%=      5-min Rain = 0
KCR1 140732Z 06005KT M03/M07 A3041 RMK A01 T10291070  RH  074%=      5-min Rain = 0
KCR1 140733Z 05005KT M03/M07 A3041 RMK A01 T10291070  RH  073%=      5-min Rain = 0
KCR1 140734Z 06005KT M03/M07 A3041 RMK A01 T10291069  RH  074%=      5-min Rain = 0
KCR1 140735Z 05006KT M03/M07 A3041 RMK A01 T10291069  RH  074%=      5-min Rain = 0
KCR1 140736Z 05006KT M03/M07 A3041 RMK A01 T10291070  RH  073%=      5-min Rain = 0
KCR1 140737Z 06006KT M03/M07 A3041 RMK A01 T10291071  RH  073%=      5-min Rain = 0
KCR1 140738Z 05006KT M03/M07 A3041 RMK A01 T10291070  RH  073%=      5-min Rain = 0
KCR1 140739Z 05006KT M03/M07 A3041 RMK A01 T10291071  RH  073%=      5-min Rain = 0
KCR1 140740Z 05006KT M03/M07 A3041 RMK A01 T10291071  RH  073%=      5-min Rain = 0
KCR1 140741Z 05006KT M03/M07 A3041 RMK A01 T10291071  RH  073%=      5-min Rain = 0
KCR1 140742Z 05006KT M03/M07 A3041 RMK A01 T10291071  RH  073%=      5-min Rain = 0
KCR1 140743Z 05006KT M03/M07 A3041 RMK A01 T10291070  RH  073%=      5-min Rain = 0
KCR1 140744Z 05006KT M03/M07 A3041 RMK A01 T10291070  RH  073%=      5-min Rain = 0
KCR1 140745Z 05006KT M03/M07 A3041 RMK A01 T10291070  RH  073%=      5-min Rain = 0
KCR1 140746Z 05006KT M03/M07 A3041 RMK A01 T10291071  RH  073%=      5-min Rain = 0
KCR1 140747Z 05007KT M03/M07 A3041 RMK A01 T10291069  RH  074%=      5-min Rain = 0
KCR1 140748Z 05007KT M03/M07 A3041 RMK A01 T10291070  RH  073%=      5-min Rain = 0
KCR1 140749Z 05006KT M03/M07 A3041 RMK A01 T10291069  RH  074%=      5-min Rain = 0
KCR1 140750Z 05007KT M03/M07 A3041 RMK A01 T10291070  RH  073%=      5-min Rain = 0
KCR1 140751Z 05006KT M03/M07 A3041 RMK A01 T10291071  RH  073%=      5-min Rain = 0
KCR1 140752Z 05006KT M03/M07 A3041 RMK A01 T10291069  RH  074%=      5-min Rain = 0
KCR1 140753Z 05006KT M03/M07 A3041 RMK A01 T10281069  RH  074%=      5-min Rain = 0
KCR1 140754Z 05007KT M03/M07 A3041 RMK A01 T10291071  RH  073%=      5-min Rain = 0
KCR1 140755Z 05006KT M03/M07 A3041 RMK A01 T10281073  RH  071%=      5-min Rain = 0
KCR1 140756Z 05006KT M03/M07 A3041 RMK A01 T10281073  RH  071%=      5-min Rain = 0
KCR1 140757Z 05005KT M03/M07 A3041 RMK A01 T10281071  RH  073%=      5-min Rain = 0
KCR1 140758Z 05005KT M03/M07 A3041 RMK A01 T10281068  RH  074%=      5-min Rain = 0
KCR1 140759Z 05006KT M03/M07 A3041 RMK A01 T10281067  RH  075%=      5-min Rain = 0
KCR1 140800Z 04006KT M03/M07 A3041 RMK A01 T10291067  RH  075%=      5-min Rain = 0
KCR1 140801Z 05006KT M03/M07 A3041 RMK A01 T10291070  RH  073%=      5-min Rain = 0
KCR1 140802Z 04006KT M03/M07 A3042 RMK A01 T10291069  RH  074%=      5-min Rain = 0
KCR1 140803Z 05007KT M03/M07 A3042 RMK A01 T10291070  RH  074%=      5-min Rain = 0
KCR1 140804Z 05006KT M03/M07 A3042 RMK A01 T10291073  RH  072%=      5-min Rain = 0
KCR1 140805Z 04006KT M03/M07 A3042 RMK A01 T10291072  RH  073%=      5-min Rain = 0
KCR1 140806Z 05006KT M03/M07 A3042 RMK A01 T10301071  RH  073%=      5-min Rain = 0
KCR1 140807Z 05007KT M03/M07 A3042 RMK A01 T10301072  RH  072%=      5-min Rain = 0
KCR1 140808Z 05006KT M03/M07 A3042 RMK A01 T10301073  RH  072%=      5-min Rain = 0
KCR1 140809Z 06006KT M03/M07 A3042 RMK A01 T10301073  RH  072%=      5-min Rain = 0
KCR1 140810Z 06007KT M03/M07 A3042 RMK A01 T10301074  RH  071%=      5-min Rain = 0
KCR1 140811Z 06007KT M03/M08 A3042 RMK A01 T10301076  RH  071%=      5-min Rain = 0
KCR1 140812Z 05007KT M03/M08 A3042 RMK A01 T10301075  RH  071%=      5-min Rain = 0
KCR1 140813Z 05006KT M03/M08 A3042 RMK A01 T10301076  RH  071%=      5-min Rain = 0
KCR1 140814Z 06006KT M03/M08 A3042 RMK A01 T10301075  RH  071%=      5-min Rain = 0
KCR1 140815Z 06005KT M03/M07 A3042 RMK A01 T10301074  RH  072%=      5-min Rain = 0
KCR1 140816Z 06006KT M03/M07 A3042 RMK A01 T10301073  RH  073%=      5-min Rain = 0
KCR1 140817Z 06006KT M03/M07 A3042 RMK A01 T10311074  RH  072%=      5-min Rain = 0
KCR1 140818Z 06007KT M03/M08 A3042 RMK A01 T10311076  RH  071%=      5-min Rain = 0
KCR1 140819Z 05006KT M03/M08 A3042 RMK A01 T10311076  RH  071%=      5-min Rain = 0
KCR1 140820Z 05006KT M03/M08 A3042 RMK A01 T10311075  RH  072%=      5-min Rain = 0
KCR1 140821Z 05006KT M03/M07 A3042 RMK A01 T10311073  RH  073%=      5-min Rain = 0
KCR1 140822Z 04005KT M03/M07 A3042 RMK A01 T10311071  RH  074%=      5-min Rain = 0
KCR1 140823Z 04005KT M03/M07 A3042 RMK A01 T10311071  RH  074%=      5-min Rain = 0
KCR1 140824Z 04006KT M03/M07 A3042 RMK A01 T10321071  RH  074%=      5-min Rain = 0
KCR1 140825Z 05005KT M03/M07 A3042 RMK A01 T10321072  RH  074%=      5-min Rain = 0
KCR1 140826Z 04005KT M03/M07 A3042 RMK A01 T10321071  RH  074%=      5-min Rain = 0
KCR1 140827Z 03005KT M03/M07 A3042 RMK A01 T10331070  RH  076%=      5-min Rain = 0
KCR1 140828Z 03005KT M03/M07 A3042 RMK A01 T10331070  RH  076%=      5-min Rain = 0
KCR1 140829Z 03005KT M03/M07 A3042 RMK A01 T10331071  RH  075%=      5-min Rain = 0
KCR1 140830Z 03005KT M03/M07 A3042 RMK A01 T10331070  RH  075%=      5-min Rain = 0
KCR1 140831Z 03005KT M03/M07 A3042 RMK A01 T10331070  RH  076%=      5-min Rain = 0
KCR1 140832Z 03005KT M03/M07 A3042 RMK A01 T10331069  RH  076%=      5-min Rain = 0
KCR1 140833Z 04005KT M03/M07 A3042 RMK A01 T10341069  RH  076%=      5-min Rain = 0
KCR1 140834Z 04005KT M03/M07 A3042 RMK A01 T10341069  RH  077%=      5-min Rain = 0
KCR1 140835Z 04005KT M03/M07 A3042 RMK A01 T10341070  RH  076%=      5-min Rain = 0
KCR1 140836Z 04006KT M03/M07 A3042 RMK A01 T10341069  RH  077%=      5-min Rain = 0
KCR1 140837Z 05005KT M03/M07 A3042 RMK A01 T10341070  RH  076%=      5-min Rain = 0
KCR1 140838Z 04006KT M03/M07 A3042 RMK A01 T10341070  RH  076%=      5-min Rain = 0
KCR1 140839Z 05006KT M03/M07 A3042 RMK A01 T10341070  RH  076%=      5-min Rain = 0
KCR1 140840Z 05006KT M03/M07 A3042 RMK A01 T10341070  RH  076%=      5-min Rain = 0
KCR1 140841Z 05005KT M03/M07 A3042 RMK A01 T10341070  RH  076%=      5-min Rain = 0
KCR1 140842Z 05006KT M03/M07 A3042 RMK A01 T10341070  RH  077%=      5-min Rain = 0
KCR1 140843Z 05006KT M03/M07 A3042 RMK A01 T10341069  RH  077%=      5-min Rain = 0
KCR1 140844Z 06006KT M03/M07 A3042 RMK A01 T10341070  RH  076%=      5-min Rain = 0
KCR1 140845Z 05006KT M03/M07 A3042 RMK A01 T10341071  RH  076%=      5-min Rain = 0
KCR1 140846Z 05007KT M03/M07 A3042 RMK A01 T10341071  RH  076%=      5-min Rain = 0
KCR1 140847Z 06007KT M03/M07 A3042 RMK A01 T10341073  RH  075%=      5-min Rain = 0
KCR1 140848Z 05006KT M03/M07 A3042 RMK A01 T10341073  RH  075%=      5-min Rain = 0
KCR1 140849Z 05006KT M03/M07 A3042 RMK A01 T10341072  RH  075%=      5-min Rain = 0
KCR1 140850Z 05007KT M04/M07 A3042 RMK A01 T10351072  RH  075%=      5-min Rain = 0
KCR1 140851Z 05007KT M04/M07 A3042 RMK A01 T10351074  RH  074%=      5-min Rain = 0
KCR1 140852Z 05007KT M04/M08 A3042 RMK A01 T10351075  RH  074%=      5-min Rain = 0
KCR1 140853Z 06005KT M04/M08 A3042 RMK A01 T10351076  RH  073%=      5-min Rain = 0
KCR1 140854Z 05005KT M04/M07 A3042 RMK A01 T10351074  RH  074%=      5-min Rain = 0
KCR1 140855Z 05005KT M04/M07 A3042 RMK A01 T10351071  RH  076%=      5-min Rain = 0
KCR1 140856Z 04004KT M04/M07 A3042 RMK A01 T10351070  RH  077%=      5-min Rain = 0
KCR1 140857Z 04005KT M04/M07 A3042 RMK A01 T10351067  RH  078%=      5-min Rain = 0
KCR1 140858Z 04004KT M04/M07 A3042 RMK A01 T10361068  RH  079%=      5-min Rain = 0
KCR1 140859Z 04004KT M04/M07 A3042 RMK A01 T10361068  RH  079%=      5-min Rain = 0
KCR1 140900Z 04005KT M04/M07 A3042 RMK A01 T10371068  RH  079%=      5-min Rain = 0
KCR1 140901Z 04004KT M04/M07 A3042 RMK A01 T10361067  RH  079%=      5-min Rain = 0
KCR1 140902Z 05005KT M04/M07 A3042 RMK A01 T10371067  RH  079%=      5-min Rain = 0
KCR1 140903Z 05005KT M04/M07 A3042 RMK A01 T10371068  RH  079%=      5-min Rain = 0
KCR1 140904Z 05004KT M04/M07 A3042 RMK A01 T10371069  RH  078%=      5-min Rain = 0
KCR1 140905Z 06005KT M04/M07 A3042 RMK A01 T10371069  RH  078%=      5-min Rain = 0
KCR1 140906Z 05005KT M04/M07 A3042 RMK A01 T10371069  RH  079%=      5-min Rain = 0
KCR1 140907Z 06006KT M04/M07 A3042 RMK A01 T10371068  RH  079%=      5-min Rain = 0
KCR1 140908Z 05006KT M04/M07 A3042 RMK A01 T10381070  RH  078%=      5-min Rain = 0
KCR1 140909Z 05006KT M04/M07 A3042 RMK A01 T10371071  RH  077%=      5-min Rain = 0
KCR1 140910Z 06007KT M04/M07 A3042 RMK A01 T10381072  RH  077%=      5-min Rain = 0
KCR1 140911Z 06007KT M04/M07 A3042 RMK A01 T10381072  RH  077%=      5-min Rain = 0
KCR1 140912Z 06005KT M04/M07 A3042 RMK A01 T10371073  RH  076%=      5-min Rain = 0
KCR1 140913Z 06005KT M04/M07 A3042 RMK A01 T10371071  RH  077%=      5-min Rain = 0
KCR1 140914Z 05007KT M04/M07 A3042 RMK A01 T10371070  RH  078%=      5-min Rain = 0
KCR1 140915Z 05007KT M04/M07 A3042 RMK A01 T10371072  RH  077%=      5-min Rain = 0
KCR1 140916Z 05006KT M04/M07 A3042 RMK A01 T10381073  RH  076%=      5-min Rain = 0
KCR1 140917Z 05006KT M04/M07 A3042 RMK A01 T10371072  RH  077%=      5-min Rain = 0
KCR1 140918Z 05007KT M04/M07 A3042 RMK A01 T10371072  RH  077%=      5-min Rain = 0
KCR1 140919Z 06006KT M04/M07 A3042 RMK A01 T10371073  RH  076%=      5-min Rain = 0
KCR1 140920Z 05006KT M04/M07 A3042 RMK A01 T10371073  RH  076%=      5-min Rain = 0
KCR1 140921Z 05007KT M04/M07 A3042 RMK A01 T10381073  RH  077%=      5-min Rain = 0
KCR1 140922Z 05006KT M04/M07 A3042 RMK A01 T10381074  RH  076%=      5-min Rain = 0
KCR1 140923Z 05006KT M04/M07 A3042 RMK A01 T10381072  RH  077%=      5-min Rain = 0
KCR1 140924Z 05007KT M04/M07 A3042 RMK A01 T10381072  RH  077%=      5-min Rain = 0
KCR1 140925Z 05006KT M04/M07 A3042 RMK A01 T10381073  RH  077%=      5-min Rain = 0
KCR1 140926Z 05006KT M04/M07 A3042 RMK A01 T10381073  RH  077%=      5-min Rain = 0
KCR1 140927Z 05007KT M04/M07 A3042 RMK A01 T10381073  RH  077%=      5-min Rain = 0
KCR1 140928Z 05007KT M04/M07 A3042 RMK A01 T10391074  RH  076%=      5-min Rain = 0
KCR1 140929Z 05006KT M04/M07 A3042 RMK A01 T10391074  RH  077%=      5-min Rain = 0
KCR1 140930Z 05006KT M04/M07 A3042 RMK A01 T10391073  RH  077%=      5-min Rain = 0
KCR1 140931Z 05006KT M04/M07 A3042 RMK A01 T10391072  RH  077%=      5-min Rain = 0
KCR1 140932Z 05006KT M04/M07 A3042 RMK A01 T10391074  RH  077%=      5-min Rain = 0
KCR1 140933Z 05007KT M04/M07 A3042 RMK A01 T10391074  RH  077%=      5-min Rain = 0
KCR1 140934Z 05006KT M04/M07 A3042 RMK A01 T10391073  RH  077%=      5-min Rain = 0
KCR1 140935Z 05007KT M04/M07 A3042 RMK A01 T10391073  RH  077%=      5-min Rain = 0
KCR1 140936Z 04007KT M04/M07 A3042 RMK A01 T10391073  RH  077%=      5-min Rain = 0
KCR1 140937Z 05006KT M04/M07 A3042 RMK A01 T10401074  RH  077%=      5-min Rain = 0
KCR1 140938Z 05007KT M04/M08 A3042 RMK A01 T10401075  RH  077%=      5-min Rain = 0
KCR1 140939Z 05007KT M04/M08 A3042 RMK A01 T10401076  RH  076%=      5-min Rain = 0
KCR1 140940Z 05006KT M04/M08 A3042 RMK A01 T10401075  RH  077%=      5-min Rain = 0
KCR1 140941Z 05007KT M04/M07 A3042 RMK A01 T10401074  RH  077%=      5-min Rain = 0
KCR1 140942Z 05007KT M04/M08 A3042 RMK A01 T10401075  RH  077%=      5-min Rain = 0
KCR1 140943Z 05007KT M04/M08 A3041 RMK A01 T10411075  RH  077%=      5-min Rain = 0
KCR1 140944Z 05007KT M04/M08 A3041 RMK A01 T10411076  RH  077%=      5-min Rain = 0
KCR1 140945Z 05007KT M04/M08 A3041 RMK A01 T10411076  RH  076%=      5-min Rain = 0
KCR1 140946Z 05007KT M04/M08 A3041 RMK A01 T10411077  RH  076%=      5-min Rain = 0
KCR1 140947Z 05008KT M04/M08 A3041 RMK A01 T10411077  RH  076%=      5-min Rain = 0
KCR1 140948Z 04007KT M04/M08 A3041 RMK A01 T10411077  RH  076%=      5-min Rain = 0
KCR1 140949Z 05007KT M04/M08 A3041 RMK A01 T10401076  RH  076%=      5-min Rain = 0
KCR1 140950Z 04007KT M04/M08 A3041 RMK A01 T10401076  RH  076%=      5-min Rain = 0
KCR1 140951Z 04007KT M04/M08 A3042 RMK A01 T10411076  RH  076%=      5-min Rain = 0
KCR1 140952Z 04007KT M04/M08 A3042 RMK A01 T10411077  RH  076%=      5-min Rain = 0
KCR1 140953Z 04007KT M04/M08 A3042 RMK A01 T10411077  RH  076%=      5-min Rain = 0
KCR1 140954Z 05007KT M04/M08 A3042 RMK A01 T10411078  RH  076%=      5-min Rain = 0
KCR1 140955Z 04006KT M04/M08 A3042 RMK A01 T10411077  RH  076%=      5-min Rain = 0
KCR1 140956Z 05007KT M04/M08 A3042 RMK A01 T10411076  RH  077%=      5-min Rain = 0
KCR1 140957Z 05007KT M04/M08 A3042 RMK A01 T10411077  RH  076%=      5-min Rain = 0
KCR1 140958Z 05006KT M04/M08 A3042 RMK A01 T10411077  RH  076%=      5-min Rain = 0
KCR1 140959Z 05007KT M04/M08 A3042 RMK A01 T10421077  RH  076%=      5-min Rain = 0
KCR1 141000Z 05006KT M04/M08 A3042 RMK A01 T10411077  RH  076%=      5-min Rain = 0
KCR1 141001Z 05006KT M04/M08 A3042 RMK A01 T10421075  RH  077%=      5-min Rain = 0
KCR1 141002Z 05007KT M04/M08 A3042 RMK A01 T10421076  RH  077%=      5-min Rain = 0
KCR1 141003Z 05007KT M04/M08 A3042 RMK A01 T10421077  RH  077%=      5-min Rain = 0
KCR1 141004Z 05007KT M04/M08 A3042 RMK A01 T10421078  RH  076%=      5-min Rain = 0
KCR1 141005Z 05007KT M04/M08 A3042 RMK A01 T10421079  RH  075%=      5-min Rain = 0
KCR1 141006Z 05006KT M04/M08 A3042 RMK A01 T10421078  RH  076%=      5-min Rain = 0
KCR1 141007Z 05007KT M04/M08 A3042 RMK A01 T10421077  RH  076%=      5-min Rain = 0
KCR1 141008Z 05007KT M04/M08 A3042 RMK A01 T10421078  RH  076%=      5-min Rain = 0
KCR1 141009Z 05007KT M04/M08 A3042 RMK A01 T10421077  RH  076%=      5-min Rain = 0
KCR1 141010Z 05008KT M04/M08 A3042 RMK A01 T10421079  RH  076%=      5-min Rain = 0
KCR1 141011Z 05006KT M04/M08 A3042 RMK A01 T10421079  RH  075%=      5-min Rain = 0
KCR1 141012Z 05007KT M04/M08 A3042 RMK A01 T10421079  RH  076%=      5-min Rain = 0
KCR1 141013Z 05006KT M04/M08 A3042 RMK A01 T10421078  RH  076%=      5-min Rain = 0
KCR1 141014Z 05006KT M04/M08 A3042 RMK A01 T10421078  RH  076%=      5-min Rain = 0
KCR1 141015Z 05006KT M04/M08 A3042 RMK A01 T10421077  RH  077%=      5-min Rain = 0
KCR1 141016Z 04006KT M04/M08 A3042 RMK A01 T10421077  RH  077%=      5-min Rain = 0
KCR1 141017Z 04005KT M04/M08 A3042 RMK A01 T10421076  RH  077%=      5-min Rain = 0
KCR1 141018Z 04006KT M04/M08 A3042 RMK A01 T10421076  RH  078%=      5-min Rain = 0
KCR1 141019Z 04006KT M04/M08 A3042 RMK A01 T10421075  RH  078%=      5-min Rain = 0
KCR1 141020Z 04006KT M04/M08 A3042 RMK A01 T10431075  RH  078%=      5-min Rain = 0
KCR1 141021Z 04006KT M04/M08 A3042 RMK A01 T10431075  RH  078%=      5-min Rain = 0
KCR1 141022Z 04006KT M04/M08 A3042 RMK A01 T10431076  RH  078%=      5-min Rain = 0
KCR1 141023Z 04006KT M04/M08 A3042 RMK A01 T10431077  RH  077%=      5-min Rain = 0
KCR1 141024Z 04006KT M04/M08 A3042 RMK A01 T10431077  RH  077%=      5-min Rain = 0
KCR1 141025Z 04006KT M04/M08 A3042 RMK A01 T10431076  RH  078%=      5-min Rain = 0
KCR1 141026Z 04006KT M04/M08 A3042 RMK A01 T10441077  RH  078%=      5-min Rain = 0
KCR1 141027Z 03006KT M04/M08 A3042 RMK A01 T10431076  RH  078%=      5-min Rain = 0
KCR1 141028Z 03006KT M04/M08 A3042 RMK A01 T10431076  RH  078%=      5-min Rain = 0
KCR1 141029Z 03007KT M04/M08 A3042 RMK A01 T10441077  RH  077%=      5-min Rain = 0
KCR1 141030Z 03007KT M04/M08 A3042 RMK A01 T10441078  RH  077%=      5-min Rain = 0
KCR1 141031Z 03006KT M04/M08 A3042 RMK A01 T10441079  RH  077%=      5-min Rain = 0
KCR1 141032Z 03006KT M04/M08 A3042 RMK A01 T10441079  RH  077%=      5-min Rain = 0
KCR1 141033Z 04005KT M04/M08 A3042 RMK A01 T10441078  RH  077%=      5-min Rain = 0
KCR1 141034Z 04006KT M04/M08 A3042 RMK A01 T10441077  RH  078%=      5-min Rain = 0
KCR1 141035Z 04007KT M04/M08 A3042 RMK A01 T10441078  RH  077%=      5-min Rain = 0
KCR1 141036Z 04006KT M04/M08 A3042 RMK A01 T10441079  RH  077%=      5-min Rain = 0
KCR1 141037Z 04006KT M04/M08 A3042 RMK A01 T10441077  RH  077%=      5-min Rain = 0
KCR1 141038Z 04006KT M04/M08 A3042 RMK A01 T10441077  RH  078%=      5-min Rain = 0
KCR1 141039Z 03006KT M04/M08 A3042 RMK A01 T10441078  RH  078%=      5-min Rain = 0
KCR1 141040Z 04006KT M04/M08 A3042 RMK A01 T10441077  RH  078%=      5-min Rain = 0
KCR1 141041Z 04006KT M04/M08 A3042 RMK A01 T10441077  RH  078%=      5-min Rain = 0
KCR1 141042Z 04006KT M05/M08 A3042 RMK A01 T10451078  RH  077%=      5-min Rain = 0
KCR1 141043Z 04006KT M05/M08 A3042 RMK A01 T10451078  RH  078%=      5-min Rain = 0
KCR1 141044Z 04006KT M05/M08 A3042 RMK A01 T10451079  RH  077%=      5-min Rain = 0
KCR1 141045Z 04006KT M05/M08 A3042 RMK A01 T10451079  RH  077%=      5-min Rain = 0
KCR1 141046Z 04006KT M05/M08 A3042 RMK A01 T10451078  RH  077%=      5-min Rain = 0
KCR1 141047Z 04006KT M05/M08 A3042 RMK A01 T10451077  RH  078%=      5-min Rain = 0
KCR1 141048Z 04006KT M05/M08 A3042 RMK A01 T10451077  RH  078%=      5-min Rain = 0
KCR1 141049Z 04005KT M05/M08 A3042 RMK A01 T10451077  RH  078%=      5-min Rain = 0
KCR1 141050Z 04005KT M05/M08 A3042 RMK A01 T10451077  RH  079%=      5-min Rain = 0
KCR1 141051Z 04006KT M05/M08 A3042 RMK A01 T10451076  RH  079%=      5-min Rain = 0
KCR1 141052Z 04006KT M05/M08 A3042 RMK A01 T10451077  RH  078%=      5-min Rain = 0
KCR1 141053Z 04006KT M05/M08 A3042 RMK A01 T10451078  RH  078%=      5-min Rain = 0
KCR1 141054Z 04006KT M05/M08 A3042 RMK A01 T10451078  RH  078%=      5-min Rain = 0
KCR1 141055Z 04006KT M05/M08 A3042 RMK A01 T10451077  RH  078%=      5-min Rain = 0
KCR1 141056Z 04006KT M05/M08 A3042 RMK A01 T10451078  RH  077%=      5-min Rain = 0
KCR1 141057Z 04006KT M05/M08 A3042 RMK A01 T10451078  RH  077%=      5-min Rain = 0
KCR1 141058Z 04006KT M05/M08 A3042 RMK A01 T10451078  RH  077%=      5-min Rain = 0
KCR1 141059Z 04006KT M05/M08 A3042 RMK A01 T10451079  RH  077%=      5-min Rain = 0
KCR1 141100Z 04007KT M05/M08 A3042 RMK A01 T10451078  RH  078%=      5-min Rain = 0
KCR1 141101Z 04006KT M05/M08 A3042 RMK A01 T10451078  RH  078%=      5-min Rain = 0
KCR1 141102Z 04006KT M05/M08 A3042 RMK A01 T10451079  RH  077%=      5-min Rain = 0
KCR1 141103Z 04006KT M05/M08 A3042 RMK A01 T10451080  RH  077%=      5-min Rain = 0
KCR1 141104Z 04006KT M05/M08 A3042 RMK A01 T10451080  RH  077%=      5-min Rain = 0
KCR1 141105Z 04005KT M05/M08 A3042 RMK A01 T10451078  RH  077%=      5-min Rain = 0
KCR1 141106Z 04006KT M05/M08 A3042 RMK A01 T10451078  RH  078%=      5-min Rain = 0
KCR1 141107Z 04005KT M05/M08 A3042 RMK A01 T10451079  RH  077%=      5-min Rain = 0
KCR1 141108Z 04005KT M05/M08 A3042 RMK A01 T10451079  RH  077%=      5-min Rain = 0
KCR1 141109Z 04005KT M05/M08 A3042 RMK A01 T10451079  RH  077%=      5-min Rain = 0
KCR1 141110Z 04005KT M05/M08 A3042 RMK A01 T10451079  RH  077%=      5-min Rain = 0
KCR1 141111Z 04005KT M05/M08 A3042 RMK A01 T10451081  RH  076%=      5-min Rain = 0
KCR1 141112Z 04006KT M05/M08 A3042 RMK A01 T10451081  RH  076%=      5-min Rain = 0
KCR1 141113Z 04005KT M05/M08 A3042 RMK A01 T10451081  RH  076%=      5-min Rain = 0
KCR1 141114Z 04005KT M05/M08 A3042 RMK A01 T10451080  RH  077%=      5-min Rain = 0
KCR1 141115Z 05006KT M05/M08 A3042 RMK A01 T10451080  RH  077%=      5-min Rain = 0
KCR1 141116Z 04005KT M05/M08 A3042 RMK A01 T10451080  RH  076%=      5-min Rain = 0
KCR1 141117Z 05005KT M05/M08 A3042 RMK A01 T10451081  RH  076%=      5-min Rain = 0
KCR1 141118Z 04005KT M05/M08 A3042 RMK A01 T10451080  RH  077%=      5-min Rain = 0
KCR1 141119Z 04005KT M05/M08 A3042 RMK A01 T10451079  RH  077%=      5-min Rain = 0
KCR1 141120Z 04005KT M05/M08 A3043 RMK A01 T10451080  RH  077%=      5-min Rain = 0
KCR1 141121Z 04004KT M05/M08 A3043 RMK A01 T10451080  RH  077%=      5-min Rain = 0
KCR1 141122Z 04004KT M05/M08 A3043 RMK A01 T10451079  RH  077%=      5-min Rain = 0
KCR1 141123Z 04004KT M05/M08 A3043 RMK A01 T10451078  RH  078%=      5-min Rain = 0
KCR1 141124Z 04004KT M05/M08 A3043 RMK A01 T10451078  RH  078%=      5-min Rain = 0
KCR1 141125Z 04004KT M05/M08 A3043 RMK A01 T10451078  RH  078%=      5-min Rain = 0
KCR1 141126Z 04004KT M05/M08 A3043 RMK A01 T10461079  RH  078%=      5-min Rain = 0
KCR1 141127Z 04004KT M05/M08 A3043 RMK A01 T10461080  RH  077%=      5-min Rain = 0
KCR1 141128Z 05004KT M05/M08 A3043 RMK A01 T10461080  RH  077%=      5-min Rain = 0
KCR1 141129Z 04004KT M05/M08 A3043 RMK A01 T10461080  RH  077%=      5-min Rain = 0
KCR1 141130Z 04004KT M05/M08 A3043 RMK A01 T10461080  RH  077%=      5-min Rain = 0
KCR1 141131Z 05004KT M05/M08 A3043 RMK A01 T10461080  RH  077%=      5-min Rain = 0
KCR1 141132Z 04004KT M05/M08 A3043 RMK A01 T10461080  RH  077%=      5-min Rain = 0
KCR1 141133Z 04004KT M05/M08 A3043 RMK A01 T10461079  RH  078%=      5-min Rain = 0
KCR1 141134Z 04004KT M05/M08 A3043 RMK A01 T10461079  RH  078%=      5-min Rain = 0
KCR1 141135Z 03004KT M05/M08 A3043 RMK A01 T10461079  RH  078%=      5-min Rain = 0
KCR1 141136Z 03004KT M05/M08 A3043 RMK A01 T10461078  RH  078%=      5-min Rain = 0
KCR1 141137Z 03004KT M05/M08 A3043 RMK A01 T10461078  RH  078%=      5-min Rain = 0
KCR1 141138Z 03004KT M05/M08 A3043 RMK A01 T10471079  RH  078%=      5-min Rain = 0
KCR1 141139Z 03004KT M05/M08 A3043 RMK A01 T10471079  RH  078%=      5-min Rain = 0
KCR1 141140Z 03004KT M05/M08 A3043 RMK A01 T10471079  RH  078%=      5-min Rain = 0
KCR1 141141Z 01004KT M05/M08 A3043 RMK A01 T10471080  RH  078%=      5-min Rain = 0
KCR1 141142Z 01003KT M05/M08 A3043 RMK A01 T10471078  RH  079%=      5-min Rain = 0
KCR1 141143Z 03003KT M05/M08 A3043 RMK A01 T10471078  RH  079%=      5-min Rain = 0
KCR1 141144Z 03003KT M05/M08 A3043 RMK A01 T10481078  RH  080%=      5-min Rain = 0
KCR1 141145Z 02003KT M05/M08 A3043 RMK A01 T10481078  RH  080%=      5-min Rain = 0
KCR1 141146Z 02003KT M05/M08 A3043 RMK A01 T10491078  RH  080%=      5-min Rain = 0
KCR1 141147Z 01003KT M05/M08 A3043 RMK A01 T10481077  RH  080%=      5-min Rain = 0
KCR1 141148Z 01003KT M05/M08 A3043 RMK A01 T10491077  RH  081%=      5-min Rain = 0
KCR1 141149Z 01003KT M05/M08 A3043 RMK A01 T10491076  RH  081%=      5-min Rain = 0
KCR1 141150Z 01003KT M05/M08 A3043 RMK A01 T10501077  RH  081%=      5-min Rain = 0
KCR1 141151Z 01003KT M05/M08 A3043 RMK A01 T10501078  RH  081%=      5-min Rain = 0
KCR1 141152Z 01003KT M05/M08 A3043 RMK A01 T10501078  RH  081%=      5-min Rain = 0
KCR1 141153Z 01003KT M05/M08 A3043 RMK A01 T10501078  RH  081%=      5-min Rain = 0
KCR1 141154Z 01003KT M05/M08 A3043 RMK A01 T10501077  RH  081%=      5-min Rain = 0
KCR1 141155Z 01004KT M05/M08 A3043 RMK A01 T10501078  RH  081%=      5-min Rain = 0
KCR1 141156Z 01003KT M05/M08 A3043 RMK A01 T10501078  RH  081%=      5-min Rain = 0
KCR1 141157Z 01004KT M05/M08 A3043 RMK A01 T10501077  RH  082%=      5-min Rain = 0
KCR1 141158Z 01004KT M05/M08 A3043 RMK A01 T10501076  RH  082%=      5-min Rain = 0
KCR1 141159Z 02004KT M05/M08 A3043 RMK A01 T10511077  RH  082%=      5-min Rain = 0
KCR1 141200Z 02004KT M05/M08 A3043 RMK A01 T10511077  RH  082%=      5-min Rain = 0
KCR1 141201Z 02004KT M05/M08 A3043 RMK A01 T10511077  RH  082%=      5-min Rain = 0
KCR1 141202Z 02004KT M05/M08 A3043 RMK A01 T10511076  RH  082%=      5-min Rain = 0
KCR1 141203Z 02004KT M05/M08 A3043 RMK A01 T10511077  RH  082%=      5-min Rain = 0
KCR1 141204Z 02004KT M05/M08 A3043 RMK A01 T10511076  RH  083%=      5-min Rain = 0
KCR1 141205Z 02004KT M05/M08 A3043 RMK A01 T10511075  RH  083%=      5-min Rain = 0
KCR1 141206Z 02004KT M05/M08 A3043 RMK A01 T10511075  RH  083%=      5-min Rain = 0
KCR1 141207Z 02004KT M05/M08 A3043 RMK A01 T10511076  RH  083%=      5-min Rain = 0
KCR1 141208Z 02004KT M05/M08 A3043 RMK A01 T10511075  RH  083%=      5-min Rain = 0
KCR1 141209Z 02004KT M05/M08 A3043 RMK A01 T10511075  RH  083%=      5-min Rain = 0
KCR1 141210Z 02004KT M05/M07 A3043 RMK A01 T10511074  RH  083%=      5-min Rain = 0
KCR1 141211Z 02004KT M05/M08 A3043 RMK A01 T10511075  RH  083%=      5-min Rain = 0
KCR1 141212Z 02004KT M05/M08 A3043 RMK A01 T10511075  RH  083%=      5-min Rain = 0
KCR1 141213Z 02004KT M05/M08 A3043 RMK A01 T10511076  RH  083%=      5-min Rain = 0
KCR1 141214Z 02004KT M05/M08 A3043 RMK A01 T10511076  RH  082%=      5-min Rain = 0
KCR1 141215Z 02004KT M05/M08 A3043 RMK A01 T10511076  RH  082%=      5-min Rain = 0
KCR1 141216Z 02004KT M05/M08 A3043 RMK A01 T10511077  RH  082%=      5-min Rain = 0
KCR1 141217Z 02003KT M05/M08 A3043 RMK A01 T10511077  RH  082%=      5-min Rain = 0
KCR1 141218Z 02003KT M05/M08 A3043 RMK A01 T10511077  RH  082%=      5-min Rain = 0
KCR1 141219Z 03003KT M05/M08 A3043 RMK A01 T10511077  RH  082%=      5-min Rain = 0
KCR1 141220Z 03004KT M05/M08 A3043 RMK A01 T10511076  RH  083%=      5-min Rain = 0
KCR1 141221Z 03004KT M05/M08 A3043 RMK A01 T10511077  RH  082%=      5-min Rain = 0
KCR1 141222Z 03004KT M05/M08 A3043 RMK A01 T10521077  RH  082%=      5-min Rain = 0
KCR1 141223Z 03004KT M05/M08 A3043 RMK A01 T10521077  RH  083%=      5-min Rain = 0
KCR1 141224Z 03003KT M05/M08 A3043 RMK A01 T10521077  RH  083%=      5-min Rain = 0
KCR1 141225Z 03003KT M05/M08 A3043 RMK A01 T10521077  RH  083%=      5-min Rain = 0
KCR1 141226Z 03003KT M05/M08 A3043 RMK A01 T10521076  RH  083%=      5-min Rain = 0
KCR1 141227Z 03004KT M05/M08 A3043 RMK A01 T10521076  RH  083%=      5-min Rain = 0
KCR1 141228Z 03004KT M05/M08 A3043 RMK A01 T10511076  RH  083%=      5-min Rain = 0
KCR1 141229Z 03004KT M05/M08 A3043 RMK A01 T10521076  RH  083%=      5-min Rain = 0
KCR1 141230Z 04004KT M05/M08 A3043 RMK A01 T10521076  RH  083%=      5-min Rain = 0
KCR1 141231Z 04004KT M05/M08 A3043 RMK A01 T10521077  RH  083%=      5-min Rain = 0
KCR1 141232Z 04004KT M05/M08 A3043 RMK A01 T10521077  RH  083%=      5-min Rain = 0
KCR1 141233Z 04004KT M05/M08 A3043 RMK A01 T10521077  RH  082%=      5-min Rain = 0
KCR1 141234Z 04004KT M05/M08 A3043 RMK A01 T10511076  RH  083%=      5-min Rain = 0
KCR1 141235Z 04004KT M05/M08 A3043 RMK A01 T10521076  RH  083%=      5-min Rain = 0
KCR1 141236Z 04004KT M05/M08 A3043 RMK A01 T10521076  RH  083%=      5-min Rain = 0
KCR1 141237Z 04004KT M05/M08 A3043 RMK A01 T10521076  RH  083%=      5-min Rain = 0
KCR1 141238Z 04004KT M05/M08 A3043 RMK A01 T10521076  RH  083%=      5-min Rain = 0
KCR1 141239Z 04004KT M05/M08 A3043 RMK A01 T10521076  RH  083%=      5-min Rain = 0
KCR1 141240Z 04003KT M05/M08 A3043 RMK A01 T10511075  RH  083%=      5-min Rain = 0
KCR1 141241Z 04003KT M05/M07 A3043 RMK A01 T10511074  RH  084%=      5-min Rain = 0
KCR1 141242Z 05004KT M05/M07 A3043 RMK A01 T10511074  RH  084%=      5-min Rain = 0
KCR1 141243Z 04003KT M05/M07 A3043 RMK A01 T10511074  RH  084%=      5-min Rain = 0
KCR1 141244Z 05004KT M05/M07 A3043 RMK A01 T10501074  RH  084%=      5-min Rain = 0
KCR1 141245Z 05005KT M05/M07 A3043 RMK A01 T10501074  RH  083%=      5-min Rain = 0
KCR1 141246Z 05004KT M05/M08 A3043 RMK A01 T10501075  RH  082%=      5-min Rain = 0
KCR1 141247Z 05004KT M05/M08 A3043 RMK A01 T10491076  RH  081%=      5-min Rain = 0
KCR1 141248Z 05004KT M05/M08 A3043 RMK A01 T10491076  RH  081%=      5-min Rain = 0
KCR1 141249Z 05004KT M05/M08 A3043 RMK A01 T10481076  RH  081%=      5-min Rain = 0
KCR1 141250Z 05004KT M05/M07 A3043 RMK A01 T10471074  RH  081%=      5-min Rain = 0
KCR1 141251Z 04005KT M05/M07 A3043 RMK A01 T10471074  RH  082%=      5-min Rain = 0
KCR1 141252Z 05005KT M05/M08 A3043 RMK A01 T10471075  RH  081%=      5-min Rain = 0
KCR1 141253Z 04004KT M05/M08 A3043 RMK A01 T10471075  RH  081%=      5-min Rain = 0
KCR1 141254Z 05004KT M05/M08 A3043 RMK A01 T10461075  RH  081%=      5-min Rain = 0
KCR1 141255Z 05004KT M05/M07 A3043 RMK A01 T10461074  RH  081%=      5-min Rain = 0
KCR1 141256Z 06004KT M05/M07 A3043 RMK A01 T10461074  RH  081%=      5-min Rain = 0
KCR1 141257Z 06005KT M05/M08 A3043 RMK A01 T10461075  RH  080%=      5-min Rain = 0
KCR1 141258Z 06005KT M05/M08 A3043 RMK A01 T10451076  RH  079%=      5-min Rain = 0
KCR1 141259Z 06005KT M05/M08 A3043 RMK A01 T10451076  RH  079%=      5-min Rain = 0
KCR1 141300Z 06005KT M05/M08 A3043 RMK A01 T10451078  RH  078%=      5-min Rain = 0
KCR1 141301Z 06005KT M05/M08 A3043 RMK A01 T10451078  RH  077%=      5-min Rain = 0
KCR1 141302Z 07005KT M05/M08 A3043 RMK A01 T10451079  RH  077%=      5-min Rain = 0
KCR1 141303Z 06006KT M04/M08 A3043 RMK A01 T10441079  RH  077%=      5-min Rain = 0
KCR1 141304Z 06006KT M04/M08 A3043 RMK A01 T10441081  RH  075%=      5-min Rain = 0
KCR1 141305Z 06004KT M04/M08 A3043 RMK A01 T10441082  RH  075%=      5-min Rain = 0
KCR1 141306Z 07005KT M04/M08 A3043 RMK A01 T10441080  RH  076%=      5-min Rain = 0
KCR1 141307Z 06005KT M04/M08 A3043 RMK A01 T10441079  RH  076%=      5-min Rain = 0
KCR1 141308Z 07006KT M04/M08 A3043 RMK A01 T10441079  RH  076%=      5-min Rain = 0
KCR1 141309Z 07005KT M04/M08 A3043 RMK A01 T10441080  RH  076%=      5-min Rain = 0
KCR1 141310Z 06004KT M04/M08 A3043 RMK A01 T10441081  RH  076%=      5-min Rain = 0
KCR1 141311Z 07005KT M04/M08 A3043 RMK A01 T10441079  RH  076%=      5-min Rain = 0
KCR1 141312Z 06005KT M04/M08 A3043 RMK A01 T10441079  RH  076%=      5-min Rain = 0
KCR1 141313Z 07005KT M04/M08 A3043 RMK A01 T10441079  RH  076%=      5-min Rain = 0
KCR1 141314Z 07005KT M04/M08 A3043 RMK A01 T10441079  RH  077%=      5-min Rain = 0
KCR1 141315Z 07006KT M04/M08 A3043 RMK A01 T10441079  RH  076%=      5-min Rain = 0
KCR1 141316Z 07006KT M04/M08 A3043 RMK A01 T10441080  RH  076%=      5-min Rain = 0
KCR1 141317Z 07005KT M04/M08 A3043 RMK A01 T10441080  RH  076%=      5-min Rain = 0
KCR1 141318Z 07005KT M04/M08 A3043 RMK A01 T10441080  RH  076%=      5-min Rain = 0
KCR1 141319Z 07005KT M04/M08 A3043 RMK A01 T10441081  RH  076%=      5-min Rain = 0
KCR1 141320Z 07005KT M04/M08 A3043 RMK A01 T10441082  RH  075%=      5-min Rain = 0
KCR1 141321Z 07004KT M05/M08 A3043 RMK A01 T10451081  RH  076%=      5-min Rain = 0
KCR1 141322Z 07004KT M05/M08 A3043 RMK A01 T10451080  RH  077%=      5-min Rain = 0
KCR1 141323Z 07005KT M05/M08 A3043 RMK A01 T10451079  RH  077%=      5-min Rain = 0
KCR1 141324Z 07005KT M05/M08 A3043 RMK A01 T10451081  RH  076%=      5-min Rain = 0
KCR1 141325Z 06006KT M05/M08 A3043 RMK A01 T10451081  RH  076%=      5-min Rain = 0
KCR1 141326Z 06005KT M05/M08 A3043 RMK A01 T10451080  RH  076%=      5-min Rain = 0
KCR1 141327Z 07005KT M05/M08 A3043 RMK A01 T10451080  RH  077%=      5-min Rain = 0
KCR1 141328Z 06005KT M04/M08 A3043 RMK A01 T10441079  RH  077%=      5-min Rain = 0
KCR1 141329Z 06005KT M05/M08 A3043 RMK A01 T10451078  RH  077%=      5-min Rain = 0
KCR1 141330Z 06005KT M05/M08 A3043 RMK A01 T10451079  RH  077%=      5-min Rain = 0
KCR1 141331Z 06005KT M05/M08 A3043 RMK A01 T10451079  RH  077%=      5-min Rain = 0
KCR1 141332Z 06005KT M05/M08 A3043 RMK A01 T10451079  RH  077%=      5-min Rain = 0
KCR1 141333Z 06005KT M05/M08 A3043 RMK A01 T10451079  RH  077%=      5-min Rain = 0
KCR1 141334Z 07005KT M05/M08 A3043 RMK A01 T10451078  RH  077%=      5-min Rain = 0
KCR1 141335Z 06005KT M05/M08 A3043 RMK A01 T10451078  RH  077%=      5-min Rain = 0
KCR1 141336Z 06005KT M05/M08 A3043 RMK A01 T10451078  RH  078%=      5-min Rain = 0
KCR1 141337Z 06005KT M05/M08 A3043 RMK A01 T10451077  RH  078%=      5-min Rain = 0
KCR1 141338Z 06005KT M05/M08 A3044 RMK A01 T10451078  RH  078%=      5-min Rain = 0
KCR1 141339Z 07005KT M05/M08 A3044 RMK A01 T10451078  RH  077%=      5-min Rain = 0
KCR1 141340Z 07005KT M04/M08 A3043 RMK A01 T10441078  RH  077%=      5-min Rain = 0
KCR1 141341Z 06005KT M04/M08 A3043 RMK A01 T10441079  RH  077%=      5-min Rain = 0
KCR1 141342Z 06005KT M04/M08 A3044 RMK A01 T10441079  RH  077%=      5-min Rain = 0
KCR1 141343Z 06005KT M04/M08 A3044 RMK A01 T10441079  RH  077%=      5-min Rain = 0
KCR1 141344Z 07004KT M04/M08 A3044 RMK A01 T10441079  RH  077%=      5-min Rain = 0
KCR1 141345Z 06004KT M04/M08 A3044 RMK A01 T10441077  RH  077%=      5-min Rain = 0
KCR1 141346Z 06005KT M04/M08 A3044 RMK A01 T10441076  RH  078%=      5-min Rain = 0
KCR1 141347Z 06005KT M04/M08 A3044 RMK A01 T10441077  RH  078%=      5-min Rain = 0
KCR1 141348Z 06005KT M05/M08 A3044 RMK A01 T10451077  RH  078%=      5-min Rain = 0
KCR1 141349Z 06004KT M05/M08 A3044 RMK A01 T10451077  RH  078%=      5-min Rain = 0
KCR1 141350Z 06005KT M05/M08 A3044 RMK A01 T10451076  RH  079%=      5-min Rain = 0
KCR1 141351Z 06005KT M05/M08 A3044 RMK A01 T10451077  RH  078%=      5-min Rain = 0
KCR1 141352Z 06005KT M05/M08 A3044 RMK A01 T10451078  RH  078%=      5-min Rain = 0
KCR1 141353Z 06005KT M05/M08 A3044 RMK A01 T10451079  RH  077%=      5-min Rain = 0
KCR1 141354Z 06004KT M05/M08 A3044 RMK A01 T10451079  RH  077%=      5-min Rain = 0
KCR1 141355Z 06004KT M05/M08 A3045 RMK A01 T10451079  RH  077%=      5-min Rain = 0
KCR1 141356Z 06004KT M05/M08 A3045 RMK A01 T10451077  RH  078%=      5-min Rain = 0
KCR1 141357Z 06004KT M05/M08 A3045 RMK A01 T10451077  RH  079%=      5-min Rain = 0
KCR1 141358Z 06004KT M05/M08 A3045 RMK A01 T10451077  RH  078%=      5-min Rain = 0
KCR1 141359Z 06004KT M05/M08 A3045 RMK A01 T10451078  RH  078%=      5-min Rain = 0
KCR1 141400Z 06005KT M05/M08 A3045 RMK A01 T10451078  RH  078%=      5-min Rain = 0
KCR1 141401Z 06004KT M05/M08 A3045 RMK A01 T10451078  RH  078%=      5-min Rain = 0
KCR1 141402Z 06004KT M05/M08 A3045 RMK A01 T10451078  RH  078%=      5-min Rain = 0
KCR1 141403Z 06004KT M05/M08 A3045 RMK A01 T10451077  RH  078%=      5-min Rain = 0
KCR1 141404Z 06004KT M05/M08 A3045 RMK A01 T10451077  RH  078%=      5-min Rain = 0
KCR1 141405Z 06004KT M04/M08 A3045 RMK A01 T10441075  RH  079%=      5-min Rain = 0
KCR1 141406Z 06004KT M04/M08 A3045 RMK A01 T10441075  RH  079%=      5-min Rain = 0
KCR1 141407Z 05004KT M04/M08 A3045 RMK A01 T10441076  RH  078%=      5-min Rain = 0
KCR1 141408Z 05004KT M04/M08 A3045 RMK A01 T10431075  RH  079%=      5-min Rain = 0
KCR1 141409Z 06004KT M04/M08 A3045 RMK A01 T10421076  RH  077%=      5-min Rain = 0
KCR1 141410Z 05004KT M04/M08 A3045 RMK A01 T10421077  RH  077%=      5-min Rain = 0
KCR1 141411Z 05004KT M04/M08 A3045 RMK A01 T10421076  RH  077%=      5-min Rain = 0
KCR1 141412Z 06004KT M04/M08 A3045 RMK A01 T10411077  RH  076%=      5-min Rain = 0
KCR1 141413Z 06004KT M04/M08 A3045 RMK A01 T10411079  RH  075%=      5-min Rain = 0
KCR1 141414Z 05004KT M04/M08 A3045 RMK A01 T10401077  RH  076%=      5-min Rain = 0
KCR1 141415Z 05003KT M04/M08 A3045 RMK A01 T10391076  RH  076%=      5-min Rain = 0
KCR1 141416Z 06003KT M04/M08 A3046 RMK A01 T10391077  RH  075%=      5-min Rain = 0
KCR1 141417Z 06003KT M04/M08 A3046 RMK A01 T10381075  RH  075%=      5-min Rain = 0
KCR1 141418Z 06004KT M04/M07 A3046 RMK A01 T10371074  RH  075%=      5-min Rain = 0
KCR1 141419Z 07003KT M04/M08 A3046 RMK A01 T10371075  RH  075%=      5-min Rain = 0
KCR1 141420Z 07004KT M04/M07 A3046 RMK A01 T10361074  RH  075%=      5-min Rain = 0
KCR1 141421Z 06003KT M04/M08 A3046 RMK A01 T10361076  RH  074%=      5-min Rain = 0
KCR1 141422Z 05003KT M04/M08 A3046 RMK A01 T10361075  RH  074%=      5-min Rain = 0
KCR1 141423Z 06003KT M04/M08 A3046 RMK A01 T10361077  RH  073%=      5-min Rain = 0
KCR1 141424Z 05004KT M04/M08 A3046 RMK A01 T10371078  RH  073%=      5-min Rain = 0
KCR1 141425Z 05004KT M04/M08 A3046 RMK A01 T10361076  RH  074%=      5-min Rain = 0
KCR1 141426Z 06004KT M04/M08 A3046 RMK A01 T10361076  RH  074%=      5-min Rain = 0
KCR1 141427Z 06003KT M04/M08 A3046 RMK A01 T10361076  RH  074%=      5-min Rain = 0
KCR1 141428Z 06003KT M04/M07 A3046 RMK A01 T10351073  RH  075%=      5-min Rain = 0
KCR1 141429Z 06003KT M03/M07 A3046 RMK A01 T10341073  RH  074%=      5-min Rain = 0
KCR1 141430Z 07004KT M03/M07 A3046 RMK A01 T10341074  RH  074%=      5-min Rain = 0
KCR1 141431Z 06003KT M03/M08 A3046 RMK A01 T10341076  RH  073%=      5-min Rain = 0
KCR1 141432Z 07004KT M03/M08 A3046 RMK A01 T10341076  RH  073%=      5-min Rain = 0
KCR1 141433Z 08004KT M04/M08 A3046 RMK A01 T10351079  RH  072%=      5-min Rain = 0
KCR1 141434Z 09004KT M04/M08 A3046 RMK A01 T10361080  RH  072%=      5-min Rain = 0
KCR1 141435Z 07004KT M04/M08 A3046 RMK A01 T10361079  RH  072%=      5-min Rain = 0
KCR1 141436Z 07005KT M04/M08 A3046 RMK A01 T10361077  RH  073%=      5-min Rain = 0
KCR1 141437Z 07004KT M04/M08 A3046 RMK A01 T10351077  RH  073%=      5-min Rain = 0
KCR1 141438Z 07005KT M04/M08 A3046 RMK A01 T10351077  RH  073%=      5-min Rain = 0
KCR1 141439Z 09004KT M03/M08 A3046 RMK A01 T10341076  RH  073%=      5-min Rain = 0
KCR1 141440Z 09003KT M03/M08 A3046 RMK A01 T10341077  RH  072%=      5-min Rain = 0
KCR1 141441Z 09003KT M03/M08 A3046 RMK A01 T10331076  RH  073%=      5-min Rain = 0
KCR1 141442Z 08004KT M03/M08 A3046 RMK A01 T10331075  RH  073%=      5-min Rain = 0
KCR1 141443Z 08004KT M03/M08 A3046 RMK A01 T10321077  RH  071%=      5-min Rain = 0
KCR1 141444Z 08004KT M03/M08 A3046 RMK A01 T10321075  RH  072%=      5-min Rain = 0
KCR1 141445Z 07004KT M03/M07 A3046 RMK A01 T10311074  RH  072%=      5-min Rain = 0
KCR1 141446Z 09004KT M03/M08 A3046 RMK A01 T10311076  RH  071%=      5-min Rain = 0
KCR1 141447Z 11004KT M03/M08 A3046 RMK A01 T10311076  RH  071%=      5-min Rain = 0
KCR1 141448Z 10003KT M03/M08 A3046 RMK A01 T10311076  RH  071%=      5-min Rain = 0
KCR1 141449Z 09004KT M03/M08 A3046 RMK A01 T10301076  RH  071%=      5-min Rain = 0
KCR1 141450Z 09004KT M03/M08 A3046 RMK A01 T10301077  RH  070%=      5-min Rain = 0
KCR1 141451Z 10004KT M03/M08 A3046 RMK A01 T10301078  RH  070%=      5-min Rain = 0
KCR1 141452Z 09004KT M03/M08 A3046 RMK A01 T10301077  RH  070%=      5-min Rain = 0
KCR1 141453Z 09005KT M03/M08 A3046 RMK A01 T10291076  RH  070%=      5-min Rain = 0
KCR1 141454Z 09006KT M03/M08 A3046 RMK A01 T10281076  RH  069%=      5-min Rain = 0
KCR1 141455Z 11005KT M03/M08 A3046 RMK A01 T10291080  RH  068%=      5-min Rain = 0
KCR1 141456Z 10005KT M03/M08 A3046 RMK A01 T10301079  RH  069%=      5-min Rain = 0
KCR1 141457Z 10005KT M03/M08 A3046 RMK A01 T10291077  RH  069%=      5-min Rain = 0
KCR1 141458Z 09005KT M03/M08 A3046 RMK A01 T10291077  RH  069%=      5-min Rain = 0
KCR1 141459Z 10006KT M03/M08 A3046 RMK A01 T10281076  RH  070%=      5-min Rain = 0
KCR1 141500Z 10005KT M03/M08 A3046 RMK A01 T10271075  RH  070%=      5-min Rain = 0
KCR1 141501Z 11006KT M03/M08 A3046 RMK A01 T10271076  RH  069%=      5-min Rain = 0
KCR1 141502Z 11007KT M03/M08 A3046 RMK A01 T10261077  RH  068%=      5-min Rain = 0
KCR1 141503Z 13007KT M03/M08 A3046 RMK A01 T10261079  RH  067%=      5-min Rain = 0
KCR1 141504Z 12005KT M03/M08 A3046 RMK A01 T10261078  RH  068%=      5-min Rain = 0
KCR1 141505Z 11004KT M02/M07 A3046 RMK A01 T10241074  RH  069%=      5-min Rain = 0
KCR1 141506Z 10006KT M02/M07 A3046 RMK A01 T10211073  RH  068%=      5-min Rain = 0
KCR1 141507Z 10006KT M02/M08 A3046 RMK A01 T10221077  RH  066%=      5-min Rain = 0
KCR1 141508Z 12005KT M02/M08 A3046 RMK A01 T10241078  RH  066%=      5-min Rain = 0
KCR1 141509Z 11007KT M02/M08 A3046 RMK A01 T10231078  RH  066%=      5-min Rain = 0
KCR1 141510Z 11007KT M02/M08 A3047 RMK A01 T10231079  RH  065%=      5-min Rain = 0
KCR1 141511Z 11006KT M02/M08 A3047 RMK A01 T10231079  RH  065%=      5-min Rain = 0
KCR1 141512Z 10006KT M02/M08 A3047 RMK A01 T10221079  RH  065%=      5-min Rain = 0
KCR1 141513Z 10006KT M02/M08 A3046 RMK A01 T10231080  RH  065%=      5-min Rain = 0
KCR1 141514Z 11005KT M02/M08 A3046 RMK A01 T10241080  RH  065%=      5-min Rain = 0
KCR1 141515Z 13006KT M02/M08 A3046 RMK A01 T10231078  RH  066%=      5-min Rain = 0
KCR1 141516Z 13005KT M02/M08 A3046 RMK A01 T10221078  RH  066%=      5-min Rain = 0
KCR1 141517Z 11007KT M02/M08 A3046 RMK A01 T10201076  RH  066%=      5-min Rain = 0
KCR1 141518Z 13007KT M02/M08 A3046 RMK A01 T10201078  RH  065%=      5-min Rain = 0
KCR1 141519Z 13005KT M02/M08 A3046 RMK A01 T10211079  RH  064%=      5-min Rain = 0
KCR1 141520Z 11006KT M02/M08 A3046 RMK A01 T10211079  RH  065%=      5-min Rain = 0
KCR1 141521Z 10006KT M02/M08 A3046 RMK A01 T10211079  RH  065%=      5-min Rain = 0
KCR1 141522Z 10007KT M02/M08 A3046 RMK A01 T10211078  RH  065%=      5-min Rain = 0
KCR1 141523Z 11007KT M02/M08 A3046 RMK A01 T10211078  RH  065%=      5-min Rain = 0
KCR1 141524Z 10007KT M02/M08 A3046 RMK A01 T10211078  RH  065%=      5-min Rain = 0
KCR1 141525Z 11007KT M02/M08 A3046 RMK A01 T10201077  RH  065%=      5-min Rain = 0
KCR1 141526Z 11007KT M02/M08 A3046 RMK A01 T10191077  RH  065%=      5-min Rain = 0
KCR1 141527Z 13007KT M02/M08 A3046 RMK A01 T10191078  RH  064%=      5-min Rain = 0
KCR1 141528Z 13007KT M02/M08 A3046 RMK A01 T10201078  RH  064%=      5-min Rain = 0
KCR1 141529Z 13006KT M02/M08 A3046 RMK A01 T10191078  RH  064%=      5-min Rain = 0
KCR1 141530Z 12005KT M02/M08 A3046 RMK A01 T10201079  RH  064%=      5-min Rain = 0
KCR1 141531Z 13006KT M02/M08 A3046 RMK A01 T10191079  RH  064%=      5-min Rain = 0
KCR1 141532Z 13007KT M02/M08 A3046 RMK A01 T10181078  RH  063%=      5-min Rain = 0
KCR1 141533Z 13007KT M02/M08 A3046 RMK A01 T10171079  RH  063%=      5-min Rain = 0
KCR1 141534Z 12006KT M02/M08 A3046 RMK A01 T10171079  RH  063%=      5-min Rain = 0
KCR1 141535Z 12004KT M02/M08 A3046 RMK A01 T10181081  RH  062%=      5-min Rain = 0
KCR1 141536Z 11007KT M02/M08 A3046 RMK A01 T10181080  RH  063%=      5-min Rain = 0
KCR1 141537Z 11006KT M02/M08 A3046 RMK A01 T10181081  RH  062%=      5-min Rain = 0
KCR1 141538Z 11005KT M02/M08 A3046 RMK A01 T10191081  RH  062%=      5-min Rain = 0
KCR1 141539Z 12005KT M02/M08 A3046 RMK A01 T10171078  RH  063%=      5-min Rain = 0
KCR1 141540Z 12004KT M02/M08 A3046 RMK A01 T10151078  RH  062%=      5-min Rain = 0
KCR1 141541Z 13003KT M01/M08 A3046 RMK A01 T10141076  RH  063%=      5-min Rain = 0
KCR1 141542Z 11006KT M01/M08 A3046 RMK A01 T10121076  RH  062%=      5-min Rain = 0
KCR1 141543Z 11005KT M01/M08 A3045 RMK A01 T10121078  RH  061%=      5-min Rain = 0
KCR1 141544Z 11006KT M01/M08 A3045 RMK A01 T10141080  RH  061%=      5-min Rain = 0
KCR1 141545Z 10006KT M01/M08 A3045 RMK A01 T10141079  RH  061%=      5-min Rain = 0
KCR1 141546Z 11005KT M01/M08 A3045 RMK A01 T10141078  RH  062%=      5-min Rain = 0
KCR1 141547Z 12005KT M01/M08 A3045 RMK A01 T10141077  RH  062%=      5-min Rain = 0
KCR1 141548Z 13004KT M01/M08 A3045 RMK A01 T10131080  RH  061%=      5-min Rain = 0
KCR1 141549Z 13004KT M01/M08 A3045 RMK A01 T10131079  RH  061%=      5-min Rain = 0
KCR1 141550Z 12005KT M01/M08 A3045 RMK A01 T10121078  RH  061%=      5-min Rain = 0
KCR1 141551Z 12007KT M01/M08 A3045 RMK A01 T10111075  RH  062%=      5-min Rain = 0
KCR1 141552Z 13006KT M01/M08 A3045 RMK A01 T10111079  RH  060%=      5-min Rain = 0
KCR1 141553Z 12005KT M01/M08 A3045 RMK A01 T10131082  RH  059%=      5-min Rain = 0
KCR1 141554Z 12005KT M01/M08 A3045 RMK A01 T10131080  RH  060%=      5-min Rain = 0
KCR1 141555Z 12006KT M01/M08 A3045 RMK A01 T10121079  RH  060%=      5-min Rain = 0
KCR1 141556Z 11006KT M01/M08 A3045 RMK A01 T10101075  RH  061%=      5-min Rain = 0
KCR1 141557Z 11005KT M01/M08 A3045 RMK A01 T10101077  RH  060%=      5-min Rain = 0
KCR1 141558Z 14005KT M01/M08 A3045 RMK A01 T10111078  RH  060%=      5-min Rain = 0
KCR1 141559Z 12004KT M01/M08 A3045 RMK A01 T10101079  RH  059%=      5-min Rain = 0
KCR1 141600Z 12006KT M01/M08 A3045 RMK A01 T10081075  RH  060%=      5-min Rain = 0
KCR1 141601Z 12005KT M01/M08 A3045 RMK A01 T10061076  RH  059%=      5-min Rain = 0
KCR1 141602Z 12007KT M01/M08 A3045 RMK A01 T10071077  RH  059%=      5-min Rain = 0
KCR1 141603Z 11006KT M01/M08 A3045 RMK A01 T10071077  RH  059%=      5-min Rain = 0
KCR1 141604Z 13005KT M01/M08 A3045 RMK A01 T10081079  RH  058%=      5-min Rain = 0
KCR1 141605Z 13006KT M01/M08 A3045 RMK A01 T10081078  RH  059%=      5-min Rain = 0
KCR1 141606Z 16007KT M01/M08 A3045 RMK A01 T10071077  RH  059%=      5-min Rain = 0
KCR1 141607Z 16006KT M01/M08 A3045 RMK A01 T10061077  RH  059%=      5-min Rain = 0
KCR1 141608Z 16005KT M01/M08 A3045 RMK A01 T10051077  RH  058%=      5-min Rain = 0
KCR1 141609Z 13005KT M01/M08 A3045 RMK A01 T10051077  RH  058%=      5-min Rain = 0
KCR1 141610Z 12005KT M00/M08 A3045 RMK A01 T10041078  RH  057%=      5-min Rain = 0
KCR1 141611Z 16005KT M01/M08 A3045 RMK A01 T10051080  RH  057%=      5-min Rain = 0
KCR1 141612Z 14006KT M01/M08 A3045 RMK A01 T10051079  RH  057%=      5-min Rain = 0
KCR1 141613Z 13006KT M00/M08 A3045 RMK A01 T10041078  RH  057%=      5-min Rain = 0
KCR1 141614Z 12005KT M01/M08 A3045 RMK A01 T10051080  RH  057%=      5-min Rain = 0
KCR1 141615Z 12004KT M01/M08 A3045 RMK A01 T10051079  RH  057%=      5-min Rain = 0
KCR1 141616Z 13004KT M00/M08 A3045 RMK A01 T10041077  RH  058%=      5-min Rain = 0
KCR1 141617Z 11005KT M00/M08 A3045 RMK A01 T10041079  RH  057%=      5-min Rain = 0
KCR1 141618Z 15005KT M00/M08 A3045 RMK A01 T10031078  RH  057%=      5-min Rain = 0
KCR1 141619Z 15006KT M00/M08 A3045 RMK A01 T10021076  RH  057%=      5-min Rain = 0
KCR1 141620Z 14006KT M00/M08 A3045 RMK A01 T10011077  RH  056%=      5-min Rain = 0
KCR1 141621Z 15005KT M00/M08 A3045 RMK A01 T10021080  RH  056%=      5-min Rain = 0
KCR1 141622Z 15004KT M00/M08 A3045 RMK A01 T10031079  RH  056%=      5-min Rain = 0
KCR1 141623Z 15003KT M00/M08 A3045 RMK A01 T10031082  RH  055%=      5-min Rain = 0
KCR1 141624Z 13005KT M00/M08 A3045 RMK A01 T10031078  RH  057%=      5-min Rain = 0
KCR1 141625Z 14005KT M00/M08 A3045 RMK A01 T10021077  RH  057%=      5-min Rain = 0
KCR1 141626Z 13006KT M00/M08 A3045 RMK A01 T10011076  RH  057%=      5-min Rain = 0
KCR1 141627Z 14005KT M00/M08 A3045 RMK A01 T10011077  RH  057%=      5-min Rain = 0
KCR1 141628Z 15003KT M00/M07 A3045 RMK A01 T10011074  RH  058%=      5-min Rain = 0
KCR1 141629Z 14005KT 00/08 A3045 RMK A01 T00-00-77  RH  056%=      5-min Rain = 0
KCR1 141630Z 14005KT M00/M08 A3045 RMK A01 T10021080  RH  056%=      5-min Rain = 0
KCR1 141631Z 15006KT M00/M08 A3044 RMK A01 T10031080  RH  056%=      5-min Rain = 0
KCR1 141632Z 15005KT M00/M08 A3044 RMK A01 T10031075  RH  058%=      5-min Rain = 0
KCR1 141633Z 14005KT 00/07 A3044 RMK A01 T00000-73  RH  058%=      5-min Rain = 0
KCR1 141634Z 15004KT 00/M07 A3044 RMK A01 T00011074  RH  057%=      5-min Rain = 0
KCR1 141635Z 15004KT 00/M07 A3044 RMK A01 T00031073  RH  057%=      5-min Rain = 0
KCR1 141636Z 14006KT 00/M07 A3044 RMK A01 T00031074  RH  056%=      5-min Rain = 0
KCR1 141637Z 15006KT 00/M07 A3044 RMK A01 T00031074  RH  056%=      5-min Rain = 0
KCR1 141638Z 14007KT 00/M07 A3044 RMK A01 T00021074  RH  056%=      5-min Rain = 0
KCR1 141639Z 13005KT 00/M08 A3044 RMK A01 T00021077  RH  055%=      5-min Rain = 0
KCR1 141640Z 12006KT 00/M08 A3044 RMK A01 T00011076  RH  056%=      5-min Rain = 0
KCR1 141641Z 14006KT 00/M08 A3044 RMK A01 T00021075  RH  056%=      5-min Rain = 0
KCR1 141642Z 15003KT 00/08 A3044 RMK A01 T00000-78  RH  056%=      5-min Rain = 0
KCR1 141643Z 12005KT 00/M07 A3044 RMK A01 T00011073  RH  057%=      5-min Rain = 0
KCR1 141644Z 12005KT 00/M07 A3044 RMK A01 T00031073  RH  057%=      5-min Rain = 0
KCR1 141645Z 11005KT 00/M08 A3044 RMK A01 T00011076  RH  056%=      5-min Rain = 0
KCR1 141646Z 12007KT 00/M07 A3044 RMK A01 T00011074  RH  057%=      5-min Rain = 0
KCR1 141647Z 14007KT 00/M07 A3044 RMK A01 T00031072  RH  057%=      5-min Rain = 0
KCR1 141648Z 16007KT 01/M07 A3044 RMK A01 T00051072  RH  056%=      5-min Rain = 0
KCR1 141649Z 16007KT 01/M07 A3044 RMK A01 T00051073  RH  056%=      5-min Rain = 0
KCR1 141650Z 16006KT 01/M08 A3044 RMK A01 T00051075  RH  055%=      5-min Rain = 0
KCR1 141651Z 18004KT 00/M08 A3044 RMK A01 T00031078  RH  055%=      5-min Rain = 0
KCR1 141652Z 18005KT 00/M07 A3044 RMK A01 T00031074  RH  056%=      5-min Rain = 0
KCR1 141653Z 17005KT 00/M07 A3044 RMK A01 T00041072  RH  056%=      5-min Rain = 0
KCR1 141654Z 18004KT 01/M07 A3044 RMK A01 T00061070  RH  057%=      5-min Rain = 0
KCR1 141655Z 12004KT 01/M07 A3044 RMK A01 T00071073  RH  055%=      5-min Rain = 0
KCR1 141656Z 13004KT 01/M07 A3044 RMK A01 T00071071  RH  056%=      5-min Rain = 0
KCR1 141657Z 13005KT 01/M07 A3044 RMK A01 T00081069  RH  056%=      5-min Rain = 0
KCR1 141658Z 13005KT 01/M07 A3044 RMK A01 T00081071  RH  056%=      5-min Rain = 0
KCR1 141659Z 13004KT 01/M07 A3044 RMK A01 T00081071  RH  056%=      5-min Rain = 0
KCR1 141700Z 11004KT 01/M07 A3044 RMK A01 T00081071  RH  055%=      5-min Rain = 0
KCR1 141701Z 14007KT 01/M07 A3044 RMK A01 T00081071  RH  055%=      5-min Rain = 0
KCR1 141702Z 16008KT 01/M07 A3044 RMK A01 T00081071  RH  055%=      5-min Rain = 0
KCR1 141703Z 17008KT 01/M07 A3044 RMK A01 T00071071  RH  056%=      5-min Rain = 0
KCR1 141704Z 15005KT 01/M07 A3044 RMK A01 T00071071  RH  056%=      5-min Rain = 0
KCR1 141705Z 15005KT 01/M07 A3044 RMK A01 T00071072  RH  056%=      5-min Rain = 0
KCR1 141706Z 14006KT 01/M07 A3044 RMK A01 T00091067  RH  057%=      5-min Rain = 0
KCR1 141707Z 16006KT 01/M06 A3044 RMK A01 T00111064  RH  057%=      5-min Rain = 0
KCR1 141708Z 17004KT 01/M07 A3044 RMK A01 T00121066  RH  056%=      5-min Rain = 0
KCR1 141709Z 15004KT 01/M07 A3044 RMK A01 T00121068  RH  055%=      5-min Rain = 0
KCR1 141710Z 13007KT 01/M07 A3044 RMK A01 T00131066  RH  056%=      5-min Rain = 0
KCR1 141711Z 12006KT 01/M07 A3044 RMK A01 T00131066  RH  056%=      5-min Rain = 0
KCR1 141712Z 13005KT 01/M07 A3044 RMK A01 T00131067  RH  055%=      5-min Rain = 0
KCR1 141713Z 14004KT 01/M07 A3044 RMK A01 T00121068  RH  055%=      5-min Rain = 0
KCR1 141714Z 14004KT 01/M07 A3044 RMK A01 T00121068  RH  055%=      5-min Rain = 0
KCR1 141715Z 16006KT 01/M07 A3043 RMK A01 T00121066  RH  056%=      5-min Rain = 0
KCR1 141716Z 16007KT 01/M06 A3043 RMK A01 T00141060  RH  058%=      5-min Rain = 0
KCR1 141717Z 16009KT 02/M06 A3043 RMK A01 T00171058  RH  057%=      5-min Rain = 0
KCR1 141718Z 16008KT 02/M06 A3043 RMK A01 T00171062  RH  056%=      5-min Rain = 0
KCR1 141719Z 16004KT 02/M07 A3043 RMK A01 T00151067  RH  055%=      5-min Rain = 0
KCR1 141720Z 15004KT 01/M07 A3043 RMK A01 T00131066  RH  056%=      5-min Rain = 0
KCR1 141721Z 15006KT 02/M06 A3043 RMK A01 T00161059  RH  057%=      5-min Rain = 0
KCR1 141722Z 17006KT 02/M06 A3043 RMK A01 T00181060  RH  056%=      5-min Rain = 0
KCR1 141723Z 17006KT 02/M06 A3043 RMK A01 T00181061  RH  056%=      5-min Rain = 0
KCR1 141724Z 16009KT 02/M06 A3043 RMK A01 T00181061  RH  056%=      5-min Rain = 0
KCR1 141725Z 16006KT 02/M06 A3043 RMK A01 T00171061  RH  056%=      5-min Rain = 0
KCR1 141726Z 16006KT 02/M06 A3043 RMK A01 T00171062  RH  056%=      5-min Rain = 0
KCR1 141727Z 15006KT 02/M06 A3043 RMK A01 T00171062  RH  056%=      5-min Rain = 0
KCR1 141728Z 13005KT 02/M06 A3043 RMK A01 T00161063  RH  055%=      5-min Rain = 0
KCR1 141729Z 16005KT 02/M06 A3043 RMK A01 T00181058  RH  057%=      5-min Rain = 0
KCR1 141730Z 18007KT 02/M06 A3043 RMK A01 T00211055  RH  057%=      5-min Rain = 0
KCR1 141731Z 17006KT 02/M06 A3043 RMK A01 T00221057  RH  056%=      5-min Rain = 0
KCR1 141732Z 14003KT 02/M06 A3043 RMK A01 T00221058  RH  055%=      5-min Rain = 0
KCR1 141733Z 16006KT 02/M06 A3043 RMK A01 T00221060  RH  055%=      5-min Rain = 0
KCR1 141734Z 16006KT 02/M06 A3043 RMK A01 T00221057  RH  056%=      5-min Rain = 0
KCR1 141735Z 17007KT 02/M06 A3042 RMK A01 T00241055  RH  056%=      5-min Rain = 0
KCR1 141736Z 17007KT 02/M06 A3042 RMK A01 T00241055  RH  056%=      5-min Rain = 0
KCR1 141737Z 16009KT 03/M06 A3042 RMK A01 T00251055  RH  056%=      5-min Rain = 0
KCR1 141738Z 16007KT 03/M05 A3042 RMK A01 T00251054  RH  056%=      5-min Rain = 0
KCR1 141739Z 17006KT 02/M06 A3042 RMK A01 T00241058  RH  055%=      5-min Rain = 0
KCR1 141740Z 18006KT 02/M06 A3042 RMK A01 T00221061  RH  054%=      5-min Rain = 0
KCR1 141741Z 17008KT 02/M06 A3042 RMK A01 T00221059  RH  055%=      5-min Rain = 0
KCR1 141742Z 18007KT 02/M06 A3042 RMK A01 T00221058  RH  055%=      5-min Rain = 0
KCR1 141743Z 19008KT 02/M05 A3042 RMK A01 T00241051  RH  058%=      5-min Rain = 0
KCR1 141744Z 18009KT 03/M05 A3042 RMK A01 T00251052  RH  057%=      5-min Rain = 0
KCR1 141745Z 17008KT 03/M05 A3042 RMK A01 T00251054  RH  056%=      5-min Rain = 0
KCR1 141746Z 17007KT 03/M06 A3042 RMK A01 T00261055  RH  055%=      5-min Rain = 0
KCR1 141747Z 16008KT 03/M06 A3042 RMK A01 T00251056  RH  055%=      5-min Rain = 0
KCR1 141748Z 17007KT 02/M06 A3042 RMK A01 T00241057  RH  055%=      5-min Rain = 0
KCR1 141749Z 17006KT 02/M06 A3042 RMK A01 T00241058  RH  055%=      5-min Rain = 0
KCR1 141750Z 14006KT 02/M06 A3042 RMK A01 T00231056  RH  056%=      5-min Rain = 0
KCR1 141751Z 15006KT 02/M06 A3042 RMK A01 T00241057  RH  055%=      5-min Rain = 0
KCR1 141752Z 15007KT 03/M06 A3042 RMK A01 T00251055  RH  056%=      5-min Rain = 0
KCR1 141753Z 15008KT 03/M05 A3042 RMK A01 T00271053  RH  056%=      5-min Rain = 0
KCR1 141754Z 17006KT 03/M06 A3042 RMK A01 T00271056  RH  054%=      5-min Rain = 0
KCR1 141755Z 18005KT 03/M05 A3042 RMK A01 T00261053  RH  056%=      5-min Rain = 0
KCR1 141756Z 15005KT 03/M05 A3042 RMK A01 T00271052  RH  056%=      5-min Rain = 0
KCR1 141757Z 18004KT 03/M05 A3041 RMK A01 T00281052  RH  055%=      5-min Rain = 0
KCR1 141758Z 20007KT 03/M05 A3041 RMK A01 T00301048  RH  056%=      5-min Rain = 0
KCR1 141759Z 20007KT 03/M05 A3041 RMK A01 T00311047  RH  057%=      5-min Rain = 0
KCR1 141800Z 20007KT 03/M04 A3041 RMK A01 T00331042  RH  058%=      5-min Rain = 0
KCR1 141801Z 16005KT 04/M04 A3041 RMK A01 T00351044  RH  056%=      5-min Rain = 0
KCR1 141802Z 19008KT 03/M05 A3041 RMK A01 T00341050  RH  054%=      5-min Rain = 0
KCR1 141803Z 18009KT 04/M04 A3041 RMK A01 T00351043  RH  056%=      5-min Rain = 0
KCR1 141804Z 17009KT 04/M04 A3041 RMK A01 T00371043  RH  056%=      5-min Rain = 0
KCR1 141805Z 16009KT 04/M05 A3041 RMK A01 T00361049  RH  054%=      5-min Rain = 0
KCR1 141806Z 17009KT 03/M05 A3041 RMK A01 T00331051  RH  054%=      5-min Rain = 0
KCR1 141807Z 15008KT 04/M05 A3041 RMK A01 T00351045  RH  056%=      5-min Rain = 0
KCR1 141808Z 16008KT 04/M04 A304 RMK A01 T00401039  RH  056%=      5-min Rain = 0
KCR1 141809Z 16007KT 04/M05 A304 RMK A01 T00391047  RH  053%=      5-min Rain = 0
KCR1 141810Z 19009KT 04/M05 A304 RMK A01 T00371046  RH  055%=      5-min Rain = 0
KCR1 141811Z 19010KT 04/M04 A304 RMK A01 T00371044  RH  055%=      5-min Rain = 0
KCR1 141812Z 19009KT 04/M04 A304 RMK A01 T00361044  RH  056%=      5-min Rain = 0
KCR1 141813Z 18009KT 04/M05 A304 RMK A01 T00351047  RH  055%=      5-min Rain = 0
KCR1 141814Z 19010KT 03/M05 A304 RMK A01 T00341046  RH  056%=      5-min Rain = 0
KCR1 141815Z 18008KT 04/M04 A304 RMK A01 T00351041  RH  057%=      5-min Rain = 0
KCR1 141816Z 17007KT 04/M04 A304 RMK A01 T00371043  RH  056%=      5-min Rain = 0
KCR1 141817Z 17009KT 04/M04 A304 RMK A01 T00371042  RH  056%=      5-min Rain = 0
KCR1 141818Z 18006KT 04/M05 A304 RMK A01 T00371045  RH  055%=      5-min Rain = 0
KCR1 141819Z 19006KT 04/M05 A304 RMK A01 T00351046  RH  055%=      5-min Rain = 0
KCR1 141820Z 22006KT 04/M04 A3039 RMK A01 T00361041  RH  057%=      5-min Rain = 0
KCR1 141821Z 21006KT 04/M04 A3039 RMK A01 T00381042  RH  056%=      5-min Rain = 0
KCR1 141822Z 18010KT 04/M04 A3039 RMK A01 T00381040  RH  057%=      5-min Rain = 0
KCR1 141823Z 17010KT 04/M04 A3039 RMK A01 T00391041  RH  056%=      5-min Rain = 0
KCR1 141824Z 17010KT 04/M04 A3039 RMK A01 T00401041  RH  056%=      5-min Rain = 0
KCR1 141825Z 17010KT 04/M04 A3039 RMK A01 T00401042  RH  055%=      5-min Rain = 0
KCR1 141826Z 17009KT 04/M05 A3039 RMK A01 T00371046  RH  055%=      5-min Rain = 0
KCR1 141827Z 17009KT 04/M04 A3039 RMK A01 T00371041  RH  057%=      5-min Rain = 0
KCR1 141828Z 17008KT 04/M04 A3039 RMK A01 T00391042  RH  056%=      5-min Rain = 0
KCR1 141829Z 18005KT 04/M05 A3039 RMK A01 T00381046  RH  054%=      5-min Rain = 0
KCR1 141830Z 17004KT 04/M05 A3039 RMK A01 T00361046  RH  055%=      5-min Rain = 0
KCR1 141831Z 20007KT 04/M04 A3039 RMK A01 T00371041  RH  057%=      5-min Rain = 0
KCR1 141832Z 19006KT 04/M04 A3039 RMK A01 T00381043  RH  055%=      5-min Rain = 0
KCR1 141833Z 19007KT 04/M04 A3038 RMK A01 T00371041  RH  056%=      5-min Rain = 0
KCR1 141834Z 18009KT 04/M04 A3038 RMK A01 T00411036  RH  057%=      5-min Rain = 0
KCR1 141835Z 15010KT 04/M04 A3038 RMK A01 T00411042  RH  055%=      5-min Rain = 0
KCR1 141836Z 15007KT 04/M05 A3038 RMK A01 T00391045  RH  054%=      5-min Rain = 0
KCR1 141837Z 17008KT 04/M04 A3038 RMK A01 T00401042  RH  055%=      5-min Rain = 0
KCR1 141838Z 18010KT 04/M04 A3038 RMK A01 T00411040  RH  056%=      5-min Rain = 0
KCR1 141839Z 19009KT 04/M04 A3038 RMK A01 T00421039  RH  056%=      5-min Rain = 0
KCR1 141840Z 20009KT 04/M04 A3038 RMK A01 T00411040  RH  056%=      5-min Rain = 0
KCR1 141841Z 19006KT 04/M04 A3038 RMK A01 T00401038  RH  057%=      5-min Rain = 0
KCR1 141842Z 20005KT 04/M04 A3038 RMK A01 T00411040  RH  056%=      5-min Rain = 0
KCR1 141843Z 22005KT 04/M04 A3038 RMK A01 T00391042  RH  055%=      5-min Rain = 0
KCR1 141844Z 21007KT 04/M04 A3037 RMK A01 T00391040  RH  056%=      5-min Rain = 0
KCR1 141845Z 19008KT 04/M04 A3037 RMK A01 T00411035  RH  058%=      5-min Rain = 0
KCR1 141846Z 18008KT 04/M03 A3037 RMK A01 T00441033  RH  057%=      5-min Rain = 0
KCR1 141847Z 19010KT 05/M03 A3037 RMK A01 T00451034  RH  057%=      5-min Rain = 0
KCR1 141848Z 20008KT 04/M04 A3037 RMK A01 T00431039  RH  055%=      5-min Rain = 0
KCR1 141849Z 18007KT 04/M04 A3037 RMK A01 T00411038  RH  056%=      5-min Rain = 0
KCR1 141850Z 18006KT 04/M04 A3037 RMK A01 T00431035  RH  057%=      5-min Rain = 0
KCR1 141851Z 17008KT 05/M03 A3037 RMK A01 T00481027  RH  058%=      5-min Rain = 0
KCR1 141852Z 17007KT 05/M03 A3037 RMK A01 T00501031  RH  056%=      5-min Rain = 0
KCR1 141853Z 17009KT 05/M03 A3037 RMK A01 T00501033  RH  055%=      5-min Rain = 0
KCR1 141854Z 17010KT 05/M04 A3037 RMK A01 T00491035  RH  055%=      5-min Rain = 0
KCR1 141855Z 17009KT 05/M03 A3037 RMK A01 T00491033  RH  056%=      5-min Rain = 0
KCR1 141856Z 17007KT 05/M04 A3037 RMK A01 T00471039  RH  054%=      5-min Rain = 0
KCR1 141857Z 17011KT 04/M04 A3037 RMK A01 T00441039  RH  055%=      5-min Rain = 0
KCR1 141858Z 16010KT 05/M04 A3037 RMK A01 T00451037  RH  055%=      5-min Rain = 0
KCR1 141859Z 16009KT 04/M04 A3036 RMK A01 T00441041  RH  054%=      5-min Rain = 0
KCR1 141900Z 16010KT 05/M04 A3036 RMK A01 T00451036  RH  056%=      5-min Rain = 0
KCR1 141901Z 17008KT 05/M04 A3036 RMK A01 T00461037  RH  055%=      5-min Rain = 0
KCR1 141902Z 16009G14KT 05/M03 A3036 RMK A01 T00471034  RH  056%=      5-min Rain = 0
KCR1 141903Z 18012KT 05/M03 A3036 RMK A01 T00501031  RH  056%=      5-min Rain = 0
KCR1 141904Z 17012KT 05/M04 A3036 RMK A01 T00501035  RH  054%=      5-min Rain = 0
KCR1 141905Z 18010KT 05/M04 A3036 RMK A01 T00491035  RH  054%=      5-min Rain = 0
KCR1 141906Z 17008KT 05/M04 A3036 RMK A01 T00481035  RH  055%=      5-min Rain = 0
KCR1 141907Z 19011KT 05/M03 A3036 RMK A01 T00491033  RH  055%=      5-min Rain = 0
KCR1 141908Z 18009KT 05/M03 A3036 RMK A01 T00491033  RH  055%=      5-min Rain = 0
KCR1 141909Z 19009KT 05/M04 A3036 RMK A01 T00471038  RH  054%=      5-min Rain = 0
KCR1 141910Z 19007KT 05/M04 A3035 RMK A01 T00461035  RH  056%=      5-min Rain = 0
KCR1 141911Z 20007G15KT 05/M04 A3035 RMK A01 T00461035  RH  056%=      5-min Rain = 0
KCR1 141912Z 18012KT 05/M03 A3035 RMK A01 T00481030  RH  057%=      5-min Rain = 0
KCR1 141913Z 17010KT 05/M03 A3035 RMK A01 T00501033  RH  055%=      5-min Rain = 0
KCR1 141914Z 16010KT 05/M04 A3035 RMK A01 T00501036  RH  054%=      5-min Rain = 0
KCR1 141915Z 16012KT 05/M03 A3035 RMK A01 T00501034  RH  054%=      5-min Rain = 0
KCR1 141916Z 16009KT 05/M03 A3035 RMK A01 T00511033  RH  055%=      5-min Rain = 0
KCR1 141917Z 17011KT 05/M03 A3035 RMK A01 T00541027  RH  056%=      5-min Rain = 0
KCR1 141918Z 17013KT 06/M03 A3035 RMK A01 T00551030  RH  054%=      5-min Rain = 0
KCR1 141919Z 18011KT 06/M03 A3035 RMK A01 T00551031  RH  054%=      5-min Rain = 0
KCR1 141920Z 17011KT 05/M03 A3035 RMK A01 T00531034  RH  054%=      5-min Rain = 0
KCR1 141921Z 18012KT 05/M03 A3035 RMK A01 T00541030  RH  055%=      5-min Rain = 0
KCR1 141922Z 17009KT 05/M03 A3035 RMK A01 T00531033  RH  054%=      5-min Rain = 0
KCR1 141923Z 17007KT 05/M04 A3035 RMK A01 T00501037  RH  053%=      5-min Rain = 0
KCR1 141924Z 17010KT 05/M03 A3035 RMK A01 T00501034  RH  054%=      5-min Rain = 0
KCR1 141925Z 18009KT 05/M04 A3034 RMK A01 T00501037  RH  053%=      5-min Rain = 0
KCR1 141926Z 18009KT 05/M04 A3034 RMK A01 T00471037  RH  054%=      5-min Rain = 0
KCR1 141927Z 19009KT 05/M03 A3034 RMK A01 T00501030  RH  056%=      5-min Rain = 0
KCR1 141928Z 18007KT 05/M03 A3034 RMK A01 T00511032  RH  055%=      5-min Rain = 0
KCR1 141929Z 18006KT 05/M03 A3034 RMK A01 T00521034  RH  054%=      5-min Rain = 0
KCR1 141930Z 16008KT 05/M03 A3034 RMK A01 T00511034  RH  054%=      5-min Rain = 0
KCR1 141931Z 15007KT 05/M03 A3034 RMK A01 T00541030  RH  055%=      5-min Rain = 0
KCR1 141932Z 17010KT 06/M03 A3034 RMK A01 T00551029  RH  055%=      5-min Rain = 0
KCR1 141933Z 17008KT 06/M03 A3033 RMK A01 T00551032  RH  053%=      5-min Rain = 0
KCR1 141934Z 18012KT 05/M03 A3033 RMK A01 T00541033  RH  054%=      5-min Rain = 0
KCR1 141935Z 17012KT 06/M03 A3033 RMK A01 T00551029  RH  055%=      5-min Rain = 0
KCR1 141936Z 17011KT 06/M03 A3033 RMK A01 T00581027  RH  054%=      5-min Rain = 0
KCR1 141937Z 17010KT 06/M03 A3033 RMK A01 T00581028  RH  054%=      5-min Rain = 0
KCR1 141938Z 17010KT 06/M03 A3033 RMK A01 T00571031  RH  053%=      5-min Rain = 0
KCR1 141939Z 16007KT 05/M04 A3033 RMK A01 T00531035  RH  053%=      5-min Rain = 0
KCR1 141940Z 15006KT 06/M03 A3033 RMK A01 T00551030  RH  055%=      5-min Rain = 0
KCR1 141941Z 15007KT 06/M03 A3033 RMK A01 T00551034  RH  053%=      5-min Rain = 0
KCR1 141942Z 15008KT 05/M04 A3033 RMK A01 T00541035  RH  053%=      5-min Rain = 0
KCR1 141943Z 16008KT 06/M03 A3033 RMK A01 T00561027  RH  055%=      5-min Rain = 0
KCR1 141944Z 18012KT 06/M02 A3033 RMK A01 T00611024  RH  055%=      5-min Rain = 0
KCR1 141945Z 18011KT 06/M03 A3033 RMK A01 T00591029  RH  053%=      5-min Rain = 0
KCR1 141946Z 17010KT 06/M03 A3033 RMK A01 T00581028  RH  054%=      5-min Rain = 0
KCR1 141947Z 18009KT 06/M03 A3032 RMK A01 T00581026  RH  055%=      5-min Rain = 0
KCR1 141948Z 17008KT 06/M03 A3032 RMK A01 T00581028  RH  054%=      5-min Rain = 0
KCR1 141949Z 17010KT 06/M03 A3032 RMK A01 T00581029  RH  054%=      5-min Rain = 0
KCR1 141950Z 15008KT 06/M03 A3032 RMK A01 T00561033  RH  053%=      5-min Rain = 0
KCR1 141951Z 15006KT 05/M03 A3032 RMK A01 T00541032  RH  054%=      5-min Rain = 0
KCR1 141952Z 17008G14KT 06/M03 A3032 RMK A01 T00581025  RH  055%=      5-min Rain = 0
KCR1 141953Z 17012KT 06/M02 A3032 RMK A01 T00601022  RH  056%=      5-min Rain = 0
KCR1 141954Z 16011KT 06/M03 A3032 RMK A01 T00611025  RH  054%=      5-min Rain = 0
KCR1 141955Z 17011KT 06/M02 A3032 RMK A01 T00611024  RH  054%=      5-min Rain = 0
KCR1 141956Z 17009KT 06/M03 A3032 RMK A01 T00601026  RH  054%=      5-min Rain = 0
KCR1 141957Z 17007KT 06/M03 A3032 RMK A01 T00601027  RH  054%=      5-min Rain = 0
KCR1 141958Z 17008KT 06/M02 A3032 RMK A01 T00611024  RH  054%=      5-min Rain = 0
KCR1 141959Z 18008KT 06/M03 A3031 RMK A01 T00621026  RH  053%=      5-min Rain = 0
KCR1 142000Z 16009KT 06/M03 A3031 RMK A01 T00621025  RH  054%=      5-min Rain = 0
KCR1 142001Z 16012KT 06/M02 A3031 RMK A01 T00641023  RH  054%=      5-min Rain = 0
KCR1 142002Z 17011KT 06/M03 A3031 RMK A01 T00641025  RH  053%=      5-min Rain = 0
KCR1 142003Z 16010KT 06/M03 A3031 RMK A01 T00621028  RH  052%=      5-min Rain = 0
KCR1 142004Z 16011KT 06/M03 A3031 RMK A01 T00621025  RH  054%=      5-min Rain = 0
KCR1 142005Z 15009KT 06/M03 A3031 RMK A01 T00631027  RH  052%=      5-min Rain = 0
KCR1 142006Z 17010KT 06/M03 A3031 RMK A01 T00621028  RH  052%=      5-min Rain = 0
KCR1 142007Z 17010KT 06/M03 A3031 RMK A01 T00611027  RH  053%=      5-min Rain = 0
KCR1 142008Z 17009KT 06/M03 A3031 RMK A01 T00621026  RH  053%=      5-min Rain = 0
KCR1 142009Z 16009KT 06/M02 A3031 RMK A01 T00631024  RH  054%=      5-min Rain = 0
KCR1 142010Z 16011KT 06/M03 A3031 RMK A01 T00641025  RH  053%=      5-min Rain = 0
KCR1 142011Z 18008KT 06/M03 A3031 RMK A01 T00641026  RH  053%=      5-min Rain = 0
KCR1 142012Z 19008KT 06/M03 A3031 RMK A01 T00641025  RH  053%=      5-min Rain = 0
KCR1 142013Z 16009KT 06/M02 A3031 RMK A01 T00641024  RH  053%=      5-min Rain = 0
KCR1 142014Z 17008KT 07/M03 A3031 RMK A01 T00651026  RH  052%=      5-min Rain = 0
KCR1 142015Z 18007KT 07/M03 A303 RMK A01 T00651027  RH  052%=      5-min Rain = 0
KCR1 142016Z 19010KT 07/M02 A303 RMK A01 T00671022  RH  053%=      5-min Rain = 0
KCR1 142017Z 18010KT 07/M02 A303 RMK A01 T00681024  RH  052%=      5-min Rain = 0
KCR1 142018Z 19011KT 07/M02 A303 RMK A01 T00701019  RH  053%=      5-min Rain = 0
KCR1 142019Z 17011KT 07/M02 A303 RMK A01 T00721019  RH  052%=      5-min Rain = 0
KCR1 142020Z 16010KT 07/M03 A303 RMK A01 T00711025  RH  051%=      5-min Rain = 0
KCR1 142021Z 16009KT 07/M03 A303 RMK A01 T00691026  RH  051%=      5-min Rain = 0
KCR1 142022Z 18010KT 07/M03 A303 RMK A01 T00671026  RH  052%=      5-min Rain = 0
KCR1 142023Z 18011G16KT 07/M02 A303 RMK A01 T00691018  RH  054%=      5-min Rain = 0
KCR1 142024Z 18013KT 07/M02 A303 RMK A01 T00691024  RH  052%=      5-min Rain = 0
KCR1 142025Z 19011KT 07/M03 A303 RMK A01 T00661025  RH  052%=      5-min Rain = 0
KCR1 142026Z 18010KT 07/M03 A303 RMK A01 T00661025  RH  053%=      5-min Rain = 0
KCR1 142027Z 16011KT 07/M02 A303 RMK A01 T00651024  RH  053%=      5-min Rain = 0
KCR1 142028Z 17011KT 07/M03 A303 RMK A01 T00671025  RH  052%=      5-min Rain = 0
KCR1 142029Z 18014KT 07/M02 A303 RMK A01 T00691021  RH  053%=      5-min Rain = 0
KCR1 142030Z 19010KT 07/M03 A303 RMK A01 T00711027  RH  050%=      5-min Rain = 0
KCR1 142031Z 19011KT 07/M02 A303 RMK A01 T00711022  RH  052%=      5-min Rain = 0
KCR1 142032Z 18011KT 07/M02 A303 RMK A01 T00731023  RH  050%=      5-min Rain = 0
KCR1 142033Z 18010KT 07/M02 A303 RMK A01 T00741018  RH  052%=      5-min Rain = 0
KCR1 142034Z 17007KT 07/M02 A303 RMK A01 T00741024  RH  050%=      5-min Rain = 0
KCR1 142035Z 18007KT 07/M02 A303 RMK A01 T00731021  RH  051%=      5-min Rain = 0
KCR1 142036Z 20009KT 07/M02 A303 RMK A01 T00731023  RH  051%=      5-min Rain = 0
KCR1 142037Z 20012KT 07/M02 A303 RMK A01 T00731021  RH  051%=      5-min Rain = 0
KCR1 142038Z 20012KT 07/M02 A303 RMK A01 T00741022  RH  051%=      5-min Rain = 0
KCR1 142039Z 17010KT 07/M02 A303 RMK A01 T00741019  RH  052%=      5-min Rain = 0
KCR1 142040Z 16009KT 08/M02 A303 RMK A01 T00761020  RH  051%=      5-min Rain = 0
KCR1 142041Z 18007KT 08/M02 A3029 RMK A01 T00751023  RH  050%=      5-min Rain = 0
KCR1 142042Z 19008KT 07/M03 A3029 RMK A01 T00741026  RH  049%=      5-min Rain = 0
KCR1 142043Z 17010KT 07/M02 A3029 RMK A01 T00721023  RH  051%=      5-min Rain = 0
KCR1 142044Z 17011KT 07/M02 A3029 RMK A01 T00741020  RH  052%=      5-min Rain = 0
KCR1 142045Z 17010KT 08/M02 A3029 RMK A01 T00761019  RH  051%=      5-min Rain = 0
KCR1 142046Z 17012KT 08/M02 A3029 RMK A01 T00771021  RH  050%=      5-min Rain = 0
KCR1 142047Z 15011KT 08/M02 A3029 RMK A01 T00751023  RH  050%=      5-min Rain = 0
KCR1 142048Z 15011KT 07/M02 A3029 RMK A01 T00741023  RH  050%=      5-min Rain = 0
KCR1 142049Z 16012KT 08/M02 A3029 RMK A01 T00751022  RH  050%=      5-min Rain = 0
KCR1 142050Z 16011KT 07/M02 A3029 RMK A01 T00741024  RH  050%=      5-min Rain = 0
KCR1 142051Z 16012KT 07/M02 A3029 RMK A01 T00731020  RH  051%=      5-min Rain = 0
KCR1 142052Z 16013KT 07/M02 A3029 RMK A01 T00741024  RH  050%=      5-min Rain = 0
KCR1 142053Z 18012KT 08/M02 A3029 RMK A01 T00751021  RH  050%=      5-min Rain = 0
KCR1 142054Z 18010KT 08/M02 A3029 RMK A01 T00761021  RH  050%=      5-min Rain = 0
KCR1 142055Z 17011G16KT 08/M02 A3029 RMK A01 T00761024  RH  049%=      5-min Rain = 0
KCR1 142056Z 16012KT 07/M03 A3029 RMK A01 T00741026  RH  049%=      5-min Rain = 0
KCR1 142057Z 17012KT 07/M02 A3029 RMK A01 T00741024  RH  050%=      5-min Rain = 0
KCR1 142058Z 17013KT 08/M02 A3029 RMK A01 T00751021  RH  050%=      5-min Rain = 0
KCR1 142059Z 18011KT 07/M03 A3029 RMK A01 T00741027  RH  049%=      5-min Rain = 0
KCR1 142100Z 17012KT 07/M03 A3029 RMK A01 T00731025  RH  050%=      5-min Rain = 0
KCR1 142101Z 17012KT 07/M03 A3029 RMK A01 T00731026  RH  049%=      5-min Rain = 0
KCR1 142102Z 18009KT 07/M03 A3029 RMK A01 T00731025  RH  050%=      5-min Rain = 0
KCR1 142103Z 17008KT 07/M02 A3029 RMK A01 T00741019  RH  052%=      5-min Rain = 0
KCR1 142104Z 17012KT 08/M02 A3028 RMK A01 T00791016  RH  051%=      5-min Rain = 0
KCR1 142105Z 19011KT 08/M02 A3028 RMK A01 T00791021  RH  049%=      5-min Rain = 0
KCR1 142106Z 20011KT 08/M02 A3028 RMK A01 T00791020  RH  050%=      5-min Rain = 0
KCR1 142107Z 20011KT 08/M02 A3028 RMK A01 T00771024  RH  049%=      5-min Rain = 0
KCR1 142108Z 18010KT 08/M02 A3028 RMK A01 T00791019  RH  050%=      5-min Rain = 0
KCR1 142109Z 19012KT 08/M02 A3028 RMK A01 T00801020  RH  049%=      5-min Rain = 0
KCR1 142110Z 19010KT 08/M02 A3028 RMK A01 T00791024  RH  048%=      5-min Rain = 0
KCR1 142111Z 19013KT 08/M02 A3028 RMK A01 T00771022  RH  049%=      5-min Rain = 0
KCR1 142112Z 19011KT 08/M02 A3028 RMK A01 T00781022  RH  049%=      5-min Rain = 0
KCR1 142113Z 20013KT 08/M02 A3028 RMK A01 T00781024  RH  049%=      5-min Rain = 0
KCR1 142114Z 19011KT 08/M02 A3028 RMK A01 T00781023  RH  049%=      5-min Rain = 0
KCR1 142115Z 19010KT 08/M03 A3028 RMK A01 T00771025  RH  048%=      5-min Rain = 0
KCR1 142116Z 17011KT 08/M02 A3028 RMK A01 T00781021  RH  050%=      5-min Rain = 0
KCR1 142117Z 18011KT 08/M02 A3028 RMK A01 T00801019  RH  050%=      5-min Rain = 0
KCR1 142118Z 18011KT 08/M02 A3028 RMK A01 T00811020  RH  049%=      5-min Rain = 0
KCR1 142119Z 18012KT 08/M02 A3028 RMK A01 T00811021  RH  049%=      5-min Rain = 0
KCR1 142120Z 18011KT 08/M02 A3028 RMK A01 T00801023  RH  048%=      5-min Rain = 0
KCR1 142121Z 18010KT 08/M03 A3027 RMK A01 T00781025  RH  048%=      5-min Rain = 0
KCR1 142122Z 18009KT 08/M02 A3027 RMK A01 T00771024  RH  049%=      5-min Rain = 0
KCR1 142123Z 16010KT 08/M02 A3027 RMK A01 T00781024  RH  049%=      5-min Rain = 0
KCR1 142124Z 17009KT 08/M02 A3027 RMK A01 T00771024  RH  049%=      5-min Rain = 0
KCR1 142125Z 17009KT 08/M02 A3027 RMK A01 T00771024  RH  049%=      5-min Rain = 0
KCR1 142126Z 17007KT 08/M03 A3027 RMK A01 T00761026  RH  048%=      5-min Rain = 0
KCR1 142127Z 19010G15KT 08/M02 A3027 RMK A01 T00761022  RH  050%=      5-min Rain = 0
KCR1 142128Z 20011KT 08/M02 A3027 RMK A01 T00791019  RH  050%=      5-min Rain = 0
KCR1 142129Z 19011KT 08/M02 A3027 RMK A01 T00801021  RH  049%=      5-min Rain = 0
KCR1 142130Z 18012KT 08/M02 A3027 RMK A01 T00801020  RH  049%=      5-min Rain = 0
KCR1 142131Z 18010KT 08/M02 A3027 RMK A01 T00801019  RH  050%=      5-min Rain = 0
KCR1 142132Z 18010KT 08/M02 A3027 RMK A01 T00821016  RH  050%=      5-min Rain = 0
KCR1 142133Z 17010KT 08/M02 A3027 RMK A01 T00821019  RH  049%=      5-min Rain = 0
KCR1 142134Z 16009KT 08/M02 A3026 RMK A01 T00811020  RH  049%=      5-min Rain = 0
KCR1 142135Z 16007KT 08/M02 A3026 RMK A01 T00811019  RH  049%=      5-min Rain = 0
KCR1 142136Z 19013KT 08/M02 A3026 RMK A01 T00811016  RH  050%=      5-min Rain = 0
KCR1 142137Z 18013KT 08/M02 A3026 RMK A01 T00831018  RH  049%=      5-min Rain = 0
KCR1 142138Z 18011KT 08/M02 A3026 RMK A01 T00821020  RH  048%=      5-min Rain = 0
KCR1 142139Z 19009KT 08/M02 A3026 RMK A01 T00811019  RH  049%=      5-min Rain = 0
KCR1 142140Z 20009KT 08/M02 A3026 RMK A01 T00821020  RH  049%=      5-min Rain = 0
KCR1 142141Z 20012KT 08/M02 A3026 RMK A01 T00821017  RH  050%=      5-min Rain = 0
KCR1 142142Z 19011KT 08/M02 A3026 RMK A01 T00831019  RH  049%=      5-min Rain = 0
KCR1 142143Z 19011KT 08/M02 A3026 RMK A01 T00821020  RH  048%=      5-min Rain = 0
KCR1 142144Z 17013KT 08/M02 A3026 RMK A01 T00821021  RH  048%=      5-min Rain = 0
KCR1 142145Z 17011KT 08/M02 A3026 RMK A01 T00821018  RH  049%=      5-min Rain = 0
KCR1 142146Z 18011KT 08/M02 A3026 RMK A01 T00831018  RH  049%=      5-min Rain = 0
KCR1 142147Z 18010KT 08/M02 A3026 RMK A01 T00811021  RH  048%=      5-min Rain = 0
KCR1 142148Z 19008KT 08/M02 A3026 RMK A01 T00811019  RH  049%=      5-min Rain = 0
KCR1 142149Z 18008KT 08/M02 A3026 RMK A01 T00831017  RH  049%=      5-min Rain = 0
KCR1 142150Z 17013KT 09/M02 A3026 RMK A01 T00851015  RH  050%=      5-min Rain = 0
KCR1 142151Z 18014KT 09/M02 A3026 RMK A01 T00861015  RH  049%=      5-min Rain = 0
KCR1 142152Z 19013KT 09/M02 A3026 RMK A01 T00861016  RH  048%=      5-min Rain = 0
KCR1 142153Z 19012KT 09/M02 A3026 RMK A01 T00861015  RH  049%=      5-min Rain = 0
KCR1 142154Z 18014KT 09/M02 A3026 RMK A01 T00851019  RH  048%=      5-min Rain = 0
KCR1 142155Z 19012KT 08/M02 A3026 RMK A01 T00831022  RH  048%=      5-min Rain = 0
KCR1 142156Z 17012KT 08/M02 A3026 RMK A01 T00831018  RH  049%=      5-min Rain = 0
KCR1 142157Z 18010KT 08/M02 A3026 RMK A01 T00831020  RH  048%=      5-min Rain = 0
KCR1 142158Z 18012KT 09/M02 A3026 RMK A01 T00851016  RH  049%=      5-min Rain = 0
KCR1 142159Z 17011KT 09/M02 A3026 RMK A01 T00861017  RH  049%=      5-min Rain = 0
KCR1 142200Z 17015KT 09/M02 A3025 RMK A01 T00871017  RH  048%=      5-min Rain = 0
KCR1 142201Z 17015KT 09/M02 A3025 RMK A01 T00871016  RH  048%=      5-min Rain = 0
KCR1 142202Z 17010KT 09/M02 A3025 RMK A01 T00861019  RH  048%=      5-min Rain = 0
KCR1 142203Z 18011KT 09/M02 A3025 RMK A01 T00861015  RH  049%=      5-min Rain = 0
KCR1 142204Z 19014KT 09/M02 A3025 RMK A01 T00871017  RH  048%=      5-min Rain = 0
KCR1 142205Z 20014KT 09/M02 A3025 RMK A01 T00851018  RH  048%=      5-min Rain = 0
KCR1 142206Z 20010KT 08/M02 A3025 RMK A01 T00841016  RH  049%=      5-min Rain = 0
KCR1 142207Z 20011KT 09/M02 A3025 RMK A01 T00851016  RH  049%=      5-min Rain = 0
KCR1 142208Z 20010KT 09/M02 A3025 RMK A01 T00851017  RH  049%=      5-min Rain = 0
KCR1 142209Z 20010KT 09/M02 A3025 RMK A01 T00851017  RH  048%=      5-min Rain = 0
KCR1 142210Z 20013KT 09/M01 A3025 RMK A01 T00871013  RH  049%=      5-min Rain = 0
KCR1 142211Z 21012KT 09/M02 A3025 RMK A01 T00881016  RH  048%=      5-min Rain = 0
KCR1 142212Z 20012KT 09/M02 A3025 RMK A01 T00881016  RH  048%=      5-min Rain = 0
KCR1 142213Z 19012KT 09/M01 A3025 RMK A01 T00891013  RH  049%=      5-min Rain = 0
KCR1 142214Z 19012KT 09/M02 A3025 RMK A01 T00881017  RH  048%=      5-min Rain = 0
KCR1 142215Z 19012KT 09/M02 A3025 RMK A01 T00871015  RH  049%=      5-min Rain = 0
KCR1 142216Z 19012KT 09/M02 A3025 RMK A01 T00871016  RH  048%=      5-min Rain = 0
KCR1 142217Z 18010KT 09/M02 A3025 RMK A01 T00861017  RH  048%=      5-min Rain = 0
KCR1 142218Z 19012KT 09/M02 A3025 RMK A01 T00851017  RH  049%=      5-min Rain = 0
KCR1 142219Z 17012KT 09/M02 A3025 RMK A01 T00861015  RH  049%=      5-min Rain = 0
KCR1 142220Z 19012KT 09/M02 A3025 RMK A01 T00871016  RH  048%=      5-min Rain = 0
KCR1 142221Z 18010KT 09/M02 A3025 RMK A01 T00861017  RH  048%=      5-min Rain = 0
KCR1 142222Z 19013KT 09/M01 A3025 RMK A01 T00861014  RH  049%=      5-min Rain = 0
KCR1 142223Z 18014KT 09/M02 A3025 RMK A01 T00871015  RH  049%=      5-min Rain = 0
KCR1 142224Z 18014KT 09/M01 A3025 RMK A01 T00871014  RH  049%=      5-min Rain = 0
KCR1 142225Z 19012KT 09/M01 A3025 RMK A01 T00881014  RH  049%=      5-min Rain = 0
KCR1 142226Z 18012KT 09/M02 A3024 RMK A01 T00871016  RH  048%=      5-min Rain = 0
KCR1 142227Z 18012KT 09/M02 A3024 RMK A01 T00871016  RH  048%=      5-min Rain = 0
KCR1 142228Z 18014KT 09/M02 A3024 RMK A01 T00871015  RH  048%=      5-min Rain = 0
KCR1 142229Z 18014KT 09/M01 A3024 RMK A01 T00881014  RH  049%=      5-min Rain = 0
KCR1 142230Z 18014KT 09/M02 A3024 RMK A01 T00881015  RH  048%=      5-min Rain = 0
KCR1 142231Z 18012KT 09/M02 A3024 RMK A01 T00881015  RH  048%=      5-min Rain = 0
KCR1 142232Z 18013KT 09/M02 A3024 RMK A01 T00891015  RH  048%=      5-min Rain = 0
KCR1 142233Z 18012KT 09/M02 A3024 RMK A01 T00881017  RH  048%=      5-min Rain = 0
KCR1 142234Z 19012KT 09/M02 A3024 RMK A01 T00871017  RH  048%=      5-min Rain = 0
KCR1 142235Z 20012KT 09/M02 A3024 RMK A01 T00861016  RH  049%=      5-min Rain = 0
KCR1 142236Z 19010KT 09/M02 A3024 RMK A01 T00861016  RH  048%=      5-min Rain = 0
KCR1 142237Z 18011KT 09/M01 A3024 RMK A01 T00881012  RH  050%=      5-min Rain = 0
KCR1 142238Z 19010KT 09/M01 A3024 RMK A01 T00891012  RH  049%=      5-min Rain = 0
KCR1 142239Z 19011KT 09/M01 A3024 RMK A01 T00911008  RH  050%=      5-min Rain = 0
KCR1 142240Z 18014KT 09/M01 A3024 RMK A01 T00911014  RH  048%=      5-min Rain = 0
KCR1 142241Z 18013KT 09/M01 A3024 RMK A01 T00891014  RH  049%=      5-min Rain = 0
KCR1 142242Z 18014KT 09/M01 A3024 RMK A01 T00881014  RH  049%=      5-min Rain = 0
KCR1 142243Z 18011KT 09/M02 A3024 RMK A01 T00871015  RH  049%=      5-min Rain = 0
KCR1 142244Z 18013KT 09/M01 A3024 RMK A01 T00861014  RH  049%=      5-min Rain = 0
KCR1 142245Z 18011KT 09/M02 A3024 RMK A01 T00871016  RH  049%=      5-min Rain = 0
KCR1 142246Z 19010KT 09/M01 A3024 RMK A01 T00871014  RH  049%=      5-min Rain = 0
KCR1 142247Z 19010KT 09/M01 A3024 RMK A01 T00871013  RH  049%=      5-min Rain = 0
KCR1 142248Z 18010KT 09/M01 A3024 RMK A01 T00881012  RH  049%=      5-min Rain = 0
KCR1 142249Z 18015KT 09/M01 A3024 RMK A01 T00881013  RH  049%=      5-min Rain = 0
KCR1 142250Z 18013KT 09/M01 A3024 RMK A01 T00891014  RH  049%=      5-min Rain = 0
KCR1 142251Z 18014KT 09/M01 A3024 RMK A01 T00881013  RH  049%=      5-min Rain = 0
KCR1 142252Z 18012KT 09/M02 A3024 RMK A01 T00881016  RH  048%=      5-min Rain = 0
KCR1 142253Z 19012KT 09/M01 A3024 RMK A01 T00881014  RH  049%=      5-min Rain = 0
KCR1 142254Z 19011KT 09/M01 A3024 RMK A01 T00871012  RH  050%=      5-min Rain = 0
KCR1 142255Z 18011KT 09/M01 A3023 RMK A01 T00881012  RH  049%=      5-min Rain = 0
KCR1 142256Z 18011KT 09/M01 A3023 RMK A01 T00881014  RH  049%=      5-min Rain = 0
KCR1 142257Z 18012KT 09/M01 A3023 RMK A01 T00881013  RH  049%=      5-min Rain = 0
KCR1 142258Z 19013KT 09/M02 A3023 RMK A01 T00881015  RH  049%=      5-min Rain = 0
KCR1 142259Z 19013KT 09/M01 A3023 RMK A01 T00871014  RH  049%=      5-min Rain = 0
KCR1 142300Z 19013G18KT 09/M01 A3023 RMK A01 T00871013  RH  049%=      5-min Rain = 0
KCR1 142301Z 19015KT 09/M01 A3023 RMK A01 T00871014  RH  049%=      5-min Rain = 0
KCR1 142302Z 19013KT 09/M01 A3023 RMK A01 T00871014  RH  049%=      5-min Rain = 0
KCR1 142303Z 20011KT 09/M01 A3023 RMK A01 T00861010  RH  051%=      5-min Rain = 0
KCR1 142304Z 19012KT 09/M01 A3023 RMK A01 T00881010  RH  050%=      5-min Rain = 0
KCR1 142305Z 18011KT 09/M01 A3023 RMK A01 T00881011  RH  050%=      5-min Rain = 0
KCR1 142306Z 18013KT 09/M01 A3023 RMK A01 T00881012  RH  049%=      5-min Rain = 0
KCR1 142307Z 17014KT 09/M01 A3023 RMK A01 T00881013  RH  049%=      5-min Rain = 0
KCR1 142308Z 18012KT 09/M02 A3023 RMK A01 T00871015  RH  049%=      5-min Rain = 0
KCR1 142309Z 18010KT 09/M01 A3023 RMK A01 T00861014  RH  050%=      5-min Rain = 0
KCR1 142310Z 18012KT 09/M01 A3023 RMK A01 T00861013  RH  050%=      5-min Rain = 0
KCR1 142311Z 19011KT 09/M01 A3023 RMK A01 T00851014  RH  050%=      5-min Rain = 0
KCR1 142312Z 18011KT 09/M01 A3023 RMK A01 T00851013  RH  050%=      5-min Rain = 0
KCR1 142313Z 18010KT 09/M01 A3023 RMK A01 T00851012  RH  050%=      5-min Rain = 0
KCR1 142314Z 19010KT 09/M01 A3023 RMK A01 T00851014  RH  050%=      5-min Rain = 0
KCR1 142315Z 18011KT 09/M01 A3023 RMK A01 T00851013  RH  050%=      5-min Rain = 0
KCR1 142316Z 18011KT 08/M01 A3023 RMK A01 T00841013  RH  050%=      5-min Rain = 0
KCR1 142317Z 17010KT 09/M01 A3023 RMK A01 T00851011  RH  051%=      5-min Rain = 0
KCR1 142318Z 18010KT 09/M01 A3023 RMK A01 T00851011  RH  051%=      5-min Rain = 0
KCR1 142319Z 18008KT 09/M01 A3023 RMK A01 T00861008  RH  052%=      5-min Rain = 0
KCR1 142320Z 18010KT 09/M01 A3023 RMK A01 T00871006  RH  052%=      5-min Rain = 0
KCR1 142321Z 19010KT 09/M01 A3023 RMK A01 T00871007  RH  051%=      5-min Rain = 0
KCR1 142322Z 18009KT 09/M01 A3022 RMK A01 T00871009  RH  051%=      5-min Rain = 0
KCR1 142323Z 18011KT 09/M01 A3022 RMK A01 T00871009  RH  051%=      5-min Rain = 0
KCR1 142324Z 19010KT 09/M01 A3022 RMK A01 T00871011  RH  050%=      5-min Rain = 0
KCR1 142325Z 18011KT 09/M01 A3022 RMK A01 T00861009  RH  051%=      5-min Rain = 0
KCR1 142326Z 18010KT 09/M01 A3022 RMK A01 T00861009  RH  051%=      5-min Rain = 0
KCR1 142327Z 18010KT 09/M01 A3022 RMK A01 T00861009  RH  051%=      5-min Rain = 0
KCR1 142328Z 18009KT 09/M01 A3023 RMK A01 T00861007  RH  052%=      5-min Rain = 0
KCR1 142329Z 18010KT 09/M01 A3022 RMK A01 T00861008  RH  052%=      5-min Rain = 0
KCR1 142330Z 19010KT 09/M01 A3022 RMK A01 T00861008  RH  052%=      5-min Rain = 0
KCR1 142331Z 19010KT 09/M01 A3022 RMK A01 T00861010  RH  051%=      5-min Rain = 0
KCR1 142332Z 18009KT 09/M01 A3022 RMK A01 T00861009  RH  051%=      5-min Rain = 0
KCR1 142333Z 18009KT 09/M01 A3022 RMK A01 T00851008  RH  052%=      5-min Rain = 0
KCR1 142334Z 18010KT 09/M01 A3022 RMK A01 T00851009  RH  052%=      5-min Rain = 0
KCR1 142335Z 17009KT 09/M01 A3022 RMK A01 T00851007  RH  052%=      5-min Rain = 0
KCR1 142336Z 18009KT 09/M01 A3022 RMK A01 T00851007  RH  052%=      5-min Rain = 0
KCR1 142337Z 18008KT 09/M01 A3022 RMK A01 T00851007  RH  052%=      5-min Rain = 0
KCR1 142338Z 18008KT 09/M01 A3022 RMK A01 T00861006  RH  053%=      5-min Rain = 0
KCR1 142339Z 18009KT 09/M01 A3022 RMK A01 T00861005  RH  053%=      5-min Rain = 0
KCR1 142340Z 18010KT 09/M01 A3022 RMK A01 T00861007  RH  052%=      5-min Rain = 0
KCR1 142341Z 17011KT 09/M01 A3022 RMK A01 T00851008  RH  052%=      5-min Rain = 0
KCR1 142342Z 18010KT 09/M01 A3022 RMK A01 T00851009  RH  051%=      5-min Rain = 0
KCR1 142343Z 18011KT 09/M01 A3022 RMK A01 T00851008  RH  052%=      5-min Rain = 0
KCR1 142344Z 18010KT 08/M01 A3022 RMK A01 T00841008  RH  052%=      5-min Rain = 0
KCR1 142345Z 18010KT 08/M01 A3022 RMK A01 T00841008  RH  052%=      5-min Rain = 0
KCR1 142346Z 18009KT 08/M01 A3022 RMK A01 T00841008  RH  052%=      5-min Rain = 0
KCR1 142347Z 17007KT 08/M01 A3022 RMK A01 T00831007  RH  053%=      5-min Rain = 0
KCR1 142348Z 18007KT 08/M01 A3022 RMK A01 T00831005  RH  054%=      5-min Rain = 0
KCR1 142349Z 17009KT 08/M01 A3022 RMK A01 T00831005  RH  054%=      5-min Rain = 0
KCR1 142350Z 17010KT 08/M01 A3022 RMK A01 T00831007  RH  053%=      5-min Rain = 0
KCR1 142351Z 17009KT 08/M01 A3022 RMK A01 T00831007  RH  053%=      5-min Rain = 0
KCR1 142352Z 17009KT 08/M01 A3022 RMK A01 T00831007  RH  053%=      5-min Rain = 0
KCR1 142353Z 17009KT 08/M01 A3022 RMK A01 T00821007  RH  053%=      5-min Rain = 0
KCR1 142354Z 17008KT 08/M01 A3022 RMK A01 T00821006  RH  054%=      5-min Rain = 0
KCR1 142355Z 17009KT 08/M01 A3022 RMK A01 T00811007  RH  054%=      5-min Rain = 0
KCR1 142356Z 16009KT 08/M01 A3022 RMK A01 T00811008  RH  054%=      5-min Rain = 0
KCR1 142357Z 17009KT 08/M01 A3022 RMK A01 T00811007  RH  054%=      5-min Rain = 0
KCR1 142358Z 17009KT 08/M01 A3022 RMK A01 T00801007  RH  054%=      5-min Rain = 0
KCR1 142359Z 17008KT 08/M01 A3022 RMK A01 T00801007  RH  054%=      5-min Rain = 0
KCR1 150000Z 17008KT 08/M01 A3022 RMK A01 T00791005  RH  055%=      5-min Rain = 0
KCR1 150001Z 17008KT 08/M01 A3021 RMK A01 T00791006  RH  055%=      5-min Rain = 0
KCR1 150002Z 17008KT 08/M01 A3021 RMK A01 T00781006  RH  055%=      5-min Rain = 0
KCR1 150003Z 17007KT 08/M01 A3021 RMK A01 T00781005  RH  056%=      5-min Rain = 0
KCR1 150004Z 17007KT 08/M01 A3021 RMK A01 T00771005  RH  056%=      5-min Rain = 0
KCR1 150005Z 17007KT 08/M00 A3021 RMK A01 T00761004  RH  057%=      5-min Rain = 0
KCR1 150006Z 17006KT 08/M01 A3021 RMK A01 T00751005  RH  057%=      5-min Rain = 0
KCR1 150007Z 17006KT 08/M00 A3021 RMK A01 T00751004  RH  057%=      5-min Rain = 0
KCR1 150008Z 17006KT 07/M00 A3021 RMK A01 T00741004  RH  058%=      5-min Rain = 0
KCR1 150009Z 17006KT 07/M00 A3021 RMK A01 T00741004  RH  058%=      5-min Rain = 0
KCR1 150010Z 17006KT 07/M00 A3021 RMK A01 T00731004  RH  058%=      5-min Rain = 0
KCR1 150011Z 17006KT 07/M00 A3021 RMK A01 T00721004  RH  059%=      5-min Rain = 0
KCR1 150012Z 17006KT 07/M00 A3021 RMK A01 T00711003  RH  059%=      5-min Rain = 0
KCR1 150013Z 17006KT 07/M00 A3021 RMK A01 T00711003  RH  060%=      5-min Rain = 0
KCR1 150014Z 17006KT 07/M00 A3021 RMK A01 T00701003  RH  060%=      5-min Rain = 0
KCR1 150015Z 17006KT 07/M00 A3021 RMK A01 T00701003  RH  060%=      5-min Rain = 0
KCR1 150016Z 17006KT 07/M00 A3021 RMK A01 T00701003  RH  060%=      5-min Rain = 0
KCR1 150017Z 17006KT 07/M00 A3021 RMK A01 T00691003  RH  060%=      5-min Rain = 0
KCR1 150018Z 17006KT 07/M00 A3021 RMK A01 T00681003  RH  060%=      5-min Rain = 0
KCR1 150019Z 17006KT 07/M00 A3021 RMK A01 T00681003  RH  061%=      5-min Rain = 0
KCR1 150020Z 17006KT 07/M00 A3021 RMK A01 T00671002  RH  061%=      5-min Rain = 0
KCR1 150021Z 17006KT 07/M00 A3021 RMK A01 T00661002  RH  062%=      5-min Rain = 0
KCR1 150022Z 17006KT 07/M00 A3021 RMK A01 T00651003  RH  062%=      5-min Rain = 0
KCR1 150023Z 17006KT 06/M00 A3021 RMK A01 T00641002  RH  062%=      5-min Rain = 0
KCR1 150024Z 17006KT 06/M00 A3021 RMK A01 T00631002  RH  063%=      5-min Rain = 0
KCR1 150025Z 17006KT 06/M00 A3021 RMK A01 T00631002  RH  063%=      5-min Rain = 0
KCR1 150026Z 17006KT 06/M00 A3021 RMK A01 T00621003  RH  063%=      5-min Rain = 0
KCR1 150027Z 17006KT 06/M00 A3021 RMK A01 T00621003  RH  063%=      5-min Rain = 0
KCR1 150028Z 17006KT 06/M00 A3021 RMK A01 T00611003  RH  063%=      5-min Rain = 0
KCR1 150029Z 17006KT 06/M00 A3021 RMK A01 T00621003  RH  063%=      5-min Rain = 0
KCR1 150030Z 17006KT 06/M00 A3021 RMK A01 T00621003  RH  063%=      5-min Rain = 0
KCR1 150031Z 17006KT 06/M00 A3021 RMK A01 T00611003  RH  063%=      5-min Rain = 0
KCR1 150032Z 17006KT 06/M00 A3021 RMK A01 T00611003  RH  064%=      5-min Rain = 0
KCR1 150033Z 17006KT 06/M00 A3021 RMK A01 T00601003  RH  064%=      5-min Rain = 0
KCR1 150034Z 17006KT 06/M00 A3021 RMK A01 T00601003  RH  064%=      5-min Rain = 0
KCR1 150035Z 16005KT 06/M00 A3021 RMK A01 T00591003  RH  064%=      5-min Rain = 0
KCR1 150036Z 16005KT 06/M00 A3021 RMK A01 T00581003  RH  064%=      5-min Rain = 0
KCR1 150037Z 16005KT 06/M00 A3021 RMK A01 T00571004  RH  065%=      5-min Rain = 0
KCR1 150038Z 16005KT 06/M00 A3021 RMK A01 T00571004  RH  065%=      5-min Rain = 0
KCR1 150039Z 16005KT 06/M00 A3021 RMK A01 T00561004  RH  065%=      5-min Rain = 0
KCR1 150040Z 17005KT 06/M00 A3021 RMK A01 T00551004  RH  066%=      5-min Rain = 0
KCR1 150041Z 17005KT 06/M00 A3021 RMK A01 T00551004  RH  066%=      5-min Rain = 0
KCR1 150042Z 16005KT 06/M00 A3021 RMK A01 T00551004  RH  066%=      5-min Rain = 0
KCR1 150043Z 16005KT 06/M00 A3021 RMK A01 T00551004  RH  066%=      5-min Rain = 0
KCR1 150044Z 16005KT 05/M00 A3021 RMK A01 T00541004  RH  066%=      5-min Rain = 0
KCR1 150045Z 16005KT 05/M00 A3021 RMK A01 T00541004  RH  066%=      5-min Rain = 0
KCR1 150046Z 16005KT 05/M00 A3021 RMK A01 T00531004  RH  066%=      5-min Rain = 0
KCR1 150047Z 17006KT 05/M01 A3021 RMK A01 T00531005  RH  066%=      5-min Rain = 0
KCR1 150048Z 17005KT 05/M01 A3021 RMK A01 T00541005  RH  066%=      5-min Rain = 0
KCR1 150049Z 17005KT 05/M01 A3021 RMK A01 T00541005  RH  066%=      5-min Rain = 0
KCR1 150050Z 17005KT 05/M00 A3021 RMK A01 T00541004  RH  066%=      5-min Rain = 0
KCR1 150051Z 17005KT 05/M00 A3021 RMK A01 T00541004  RH  066%=      5-min Rain = 0
KCR1 150052Z 17005KT 05/M00 A3021 RMK A01 T00541004  RH  066%=      5-min Rain = 0
KCR1 150053Z 16005KT 05/M00 A3021 RMK A01 T00531004  RH  066%=      5-min Rain = 0
KCR1 150054Z 17005KT 05/M00 A3021 RMK A01 T00531004  RH  067%=      5-min Rain = 0
KCR1 150055Z 17005KT 05/M00 A3021 RMK A01 T00531004  RH  067%=      5-min Rain = 0
KCR1 150056Z 17005KT 05/M00 A3021 RMK A01 T00531004  RH  067%=      5-min Rain = 0
KCR1 150057Z 17005KT 05/M00 A3021 RMK A01 T00531004  RH  067%=      5-min Rain = 0
KCR1 150058Z 17005KT 05/M01 A3021 RMK A01 T00531005  RH  066%=      5-min Rain = 0
KCR1 150059Z 16005KT 05/M00 A3021 RMK A01 T00531004  RH  067%=      5-min Rain = 0
KCR1 150100Z 16005KT 05/M01 A3021 RMK A01 T00521005  RH  067%=      5-min Rain = 0
KCR1 150101Z 16005KT 05/M01 A3021 RMK A01 T00511005  RH  067%=      5-min Rain = 0
KCR1 150102Z 16006KT 05/M00 A3021 RMK A01 T00511004  RH  067%=      5-min Rain = 0
KCR1 150103Z 16005KT 05/M01 A3021 RMK A01 T00501005  RH  068%=      5-min Rain = 0
KCR1 150104Z 16005KT 05/M01 A3021 RMK A01 T00501005  RH  068%=      5-min Rain = 0
KCR1 150105Z 16005KT 05/M01 A3021 RMK A01 T00491005  RH  068%=      5-min Rain = 0
KCR1 150106Z 15005KT 05/M01 A3021 RMK A01 T00481005  RH  068%=      5-min Rain = 0
KCR1 150107Z 15005KT 05/M01 A3021 RMK A01 T00481005  RH  069%=      5-min Rain = 0
KCR1 150108Z 15005KT 05/M01 A3021 RMK A01 T00471005  RH  069%=      5-min Rain = 0
KCR1 150109Z 15005KT 05/M01 A3021 RMK A01 T00471005  RH  069%=      5-min Rain = 0
KCR1 150110Z 15005KT 05/M01 A3021 RMK A01 T00461005  RH  069%=      5-min Rain = 0
KCR1 150111Z 15005KT 05/M01 A3021 RMK A01 T00461006  RH  069%=      5-min Rain = 0
KCR1 150112Z 15005KT 05/M01 A3021 RMK A01 T00461005  RH  069%=      5-min Rain = 0
KCR1 150113Z 15006KT 05/M01 A3021 RMK A01 T00451005  RH  070%=      5-min Rain = 0
KCR1 150114Z 15006KT 05/M01 A3021 RMK A01 T00451005  RH  070%=      5-min Rain = 0
KCR1 150115Z 15006KT 05/M01 A3021 RMK A01 T00451005  RH  070%=      5-min Rain = 0
KCR1 150116Z 15006KT 05/M01 A3021 RMK A01 T00451005  RH  070%=      5-min Rain = 0
KCR1 150117Z 15006KT 05/M01 A3021 RMK A01 T00451005  RH  070%=      5-min Rain = 0
KCR1 150118Z 15006KT 05/M01 A3021 RMK A01 T00451005  RH  070%=      5-min Rain = 0
KCR1 150119Z 15007KT 04/M01 A3021 RMK A01 T00441005  RH  070%=      5-min Rain = 0
KCR1 150120Z 15007KT 04/M01 A3021 RMK A01 T00431005  RH  071%=      5-min Rain = 0
KCR1 150121Z 15007KT 04/M00 A3021 RMK A01 T00431004  RH  071%=      5-min Rain = 0
KCR1 150122Z 15007KT 04/M00 A3021 RMK A01 T00431003  RH  072%=      5-min Rain = 0
KCR1 150123Z 15007KT 04/M00 A3021 RMK A01 T00421004  RH  072%=      5-min Rain = 0
KCR1 150124Z 15007KT 04/M00 A3021 RMK A01 T00421004  RH  072%=      5-min Rain = 0
KCR1 150125Z 15007KT 04/M00 A3021 RMK A01 T00411004  RH  073%=      5-min Rain = 0
KCR1 150126Z 15007KT 04/M00 A3021 RMK A01 T00411004  RH  073%=      5-min Rain = 0
KCR1 150127Z 15006KT 04/M00 A3021 RMK A01 T00411004  RH  073%=      5-min Rain = 0
KCR1 150128Z 15006KT 04/M00 A3021 RMK A01 T00411003  RH  073%=      5-min Rain = 0
KCR1 150129Z 15006KT 04/M00 A3021 RMK A01 T00411003  RH  073%=      5-min Rain = 0
KCR1 150130Z 15006KT 04/M00 A3021 RMK A01 T00411003  RH  073%=      5-min Rain = 0
KCR1 150131Z 15006KT 04/M00 A3021 RMK A01 T00401004  RH  073%=      5-min Rain = 0
KCR1 150132Z 15006KT 04/M00 A3021 RMK A01 T00401004  RH  073%=      5-min Rain = 0
KCR1 150133Z 15006KT 04/M00 A3021 RMK A01 T00401004  RH  073%=      5-min Rain = 0
KCR1 150134Z 15006KT 04/M00 A3021 RMK A01 T00401004  RH  073%=      5-min Rain = 0
KCR1 150135Z 15006KT 04/M00 A3021 RMK A01 T00411004  RH  073%=      5-min Rain = 0
KCR1 150136Z 15006KT 04/M00 A3021 RMK A01 T00411004  RH  073%=      5-min Rain = 0
KCR1 150137Z 15006KT 04/M00 A3021 RMK A01 T00411004  RH  073%=      5-min Rain = 0
KCR1 150138Z 16006KT 04/M00 A3021 RMK A01 T00411003  RH  073%=      5-min Rain = 0
KCR1 150139Z 16006KT 04/M00 A3021 RMK A01 T00401003  RH  073%=      5-min Rain = 0
KCR1 150140Z 16006KT 04/M00 A3021 RMK A01 T00391003  RH  074%=      5-min Rain = 0
KCR1 150141Z 16006KT 04/M00 A3021 RMK A01 T00391002  RH  074%=      5-min Rain = 0
KCR1 150142Z 16006KT 04/M00 A3021 RMK A01 T00391002  RH  074%=      5-min Rain = 0
KCR1 150143Z 16006KT 04/M00 A3021 RMK A01 T00391002  RH  074%=      5-min Rain = 0
KCR1 150144Z 16006KT 04/M00 A3021 RMK A01 T00391003  RH  074%=      5-min Rain = 0
KCR1 150145Z 15006KT 04/M00 A3021 RMK A01 T00391002  RH  075%=      5-min Rain = 0
KCR1 150146Z 16006KT 04/M00 A3021 RMK A01 T00381003  RH  075%=      5-min Rain = 0
KCR1 150147Z 16006KT 04/M00 A3021 RMK A01 T00381003  RH  075%=      5-min Rain = 0
KCR1 150148Z 16007KT 04/M00 A3021 RMK A01 T00381003  RH  075%=      5-min Rain = 0
KCR1 150149Z 16007KT 04/M00 A3021 RMK A01 T00381003  RH  075%=      5-min Rain = 0
KCR1 150150Z 15007KT 04/M00 A3021 RMK A01 T00381003  RH  075%=      5-min Rain = 0
KCR1 150151Z 16007KT 04/M00 A302 RMK A01 T00381004  RH  074%=      5-min Rain = 0
KCR1 150152Z 16007KT 04/M00 A302 RMK A01 T00381004  RH  074%=      5-min Rain = 0
KCR1 150153Z 16007KT 04/M00 A302 RMK A01 T00381004  RH  074%=      5-min Rain = 0
KCR1 150154Z 15007KT 04/M00 A302 RMK A01 T00381004  RH  074%=      5-min Rain = 0
KCR1 150155Z 15008KT 04/M00 A302 RMK A01 T00391004  RH  074%=      5-min Rain = 0
KCR1 150156Z 15007KT 04/M00 A302 RMK A01 T00391003  RH  074%=      5-min Rain = 0
KCR1 150157Z 15008KT 04/M00 A302 RMK A01 T00401003  RH  073%=      5-min Rain = 0
KCR1 150158Z 15007KT 04/M00 A302 RMK A01 T00411003  RH  073%=      5-min Rain = 0
KCR1 150159Z 15007KT 04/M00 A302 RMK A01 T00421003  RH  073%=      5-min Rain = 0
KCR1 150200Z 15007KT 04/M00 A302 RMK A01 T00421003  RH  072%=      5-min Rain = 0
KCR1 150201Z 15007KT 04/M00 A302 RMK A01 T00431003  RH  072%=      5-min Rain = 0
KCR1 150202Z 15007KT 04/M00 A302 RMK A01 T00431003  RH  072%=      5-min Rain = 0
KCR1 150203Z 15007KT 04/M00 A302 RMK A01 T00431004  RH  072%=      5-min Rain = 0
KCR1 150204Z 15008KT 04/M00 A302 RMK A01 T00421004  RH  072%=      5-min Rain = 0
KCR1 150205Z 15008KT 04/M00 A302 RMK A01 T00421004  RH  072%=      5-min Rain = 0
KCR1 150206Z 15008KT 04/M00 A302 RMK A01 T00421004  RH  072%=      5-min Rain = 0
KCR1 150207Z 15009KT 04/M00 A302 RMK A01 T00431004  RH  072%=      5-min Rain = 0
KCR1 150208Z 15008KT 04/M00 A302 RMK A01 T00441003  RH  071%=      5-min Rain = 0
KCR1 150209Z 16008KT 04/M00 A302 RMK A01 T00441003  RH  071%=      5-min Rain = 0
KCR1 150210Z 15008KT 05/M00 A302 RMK A01 T00451002  RH  071%=      5-min Rain = 0
KCR1 150211Z 16008KT 05/M00 A302 RMK A01 T00451002  RH  072%=      5-min Rain = 0
KCR1 150212Z 16008KT 05/M00 A302 RMK A01 T00461001  RH  072%=      5-min Rain = 0
KCR1 150213Z 16008KT 05/M00 A302 RMK A01 T00461001  RH  072%=      5-min Rain = 0
KCR1 150214Z 16008KT 05/00 A302 RMK A01 T00470000  RH  072%=      5-min Rain = 0
KCR1 150215Z 16008KT 05/00 A302 RMK A01 T00480001  RH  072%=      5-min Rain = 0
KCR1 150216Z 16008KT 05/00 A302 RMK A01 T00490002  RH  071%=      5-min Rain = 0
KCR1 150217Z 16008KT 05/00 A302 RMK A01 T00500002  RH  071%=      5-min Rain = 0
KCR1 150218Z 16008KT 05/00 A302 RMK A01 T00520002  RH  070%=      5-min Rain = 0
KCR1 150219Z 16008KT 05/00 A302 RMK A01 T00520002  RH  070%=      5-min Rain = 0
KCR1 150220Z 16009KT 05/00 A302 RMK A01 T00530002  RH  070%=      5-min Rain = 0
KCR1 150221Z 16008KT 05/00 A302 RMK A01 T00530002  RH  069%=      5-min Rain = 0
KCR1 150222Z 16008KT 05/00 A302 RMK A01 T00540001  RH  069%=      5-min Rain = 0
KCR1 150223Z 16008KT 06/00 A302 RMK A01 T00550001  RH  068%=      5-min Rain = 0
KCR1 150224Z 16009KT 06/00 A302 RMK A01 T00560001  RH  068%=      5-min Rain = 0
KCR1 150225Z 16008KT 06/00 A302 RMK A01 T00560001  RH  068%=      5-min Rain = 0
KCR1 150226Z 16008KT 06/00 A302 RMK A01 T00560001  RH  068%=      5-min Rain = 0
KCR1 150227Z 16008KT 06/00 A302 RMK A01 T00560001  RH  068%=      5-min Rain = 0
KCR1 150228Z 16008KT 06/00 A302 RMK A01 T00560001  RH  068%=      5-min Rain = 0
KCR1 150229Z 16008KT 06/00 A302 RMK A01 T00550001  RH  068%=      5-min Rain = 0
KCR1 150230Z 16008KT 06/00 A302 RMK A01 T00550001  RH  068%=      5-min Rain = 0
KCR1 150231Z 16008KT 06/00 A302 RMK A01 T00550001  RH  068%=      5-min Rain = 0
KCR1 150232Z 16008KT 05/00 A302 RMK A01 T00540001  RH  068%=      5-min Rain = 0
KCR1 150233Z 16008KT 05/00 A302 RMK A01 T00540001  RH  069%=      5-min Rain = 0
KCR1 150234Z 16008KT 05/00 A302 RMK A01 T00530001  RH  069%=      5-min Rain = 0
KCR1 150235Z 16008KT 05/00 A302 RMK A01 T00530001  RH  069%=      5-min Rain = 0
KCR1 150236Z 16008KT 05/00 A302 RMK A01 T00530001  RH  069%=      5-min Rain = 0
KCR1 150237Z 16008KT 05/00 A302 RMK A01 T00530001  RH  069%=      5-min Rain = 0
KCR1 150238Z 16008KT 05/00 A302 RMK A01 T00530001  RH  069%=      5-min Rain = 0
KCR1 150239Z 16008KT 05/00 A302 RMK A01 T00530000  RH  069%=      5-min Rain = 0
KCR1 150240Z 17008KT 05/00 A302 RMK A01 T005300-0  RH  068%=      5-min Rain = 0
KCR1 150241Z 17009KT 05/00 A302 RMK A01 T005300-0  RH  068%=      5-min Rain = 0
KCR1 150242Z 17009KT 05/00 A302 RMK A01 T00540000  RH  068%=      5-min Rain = 0
KCR1 150243Z 17008KT 05/00 A302 RMK A01 T00540000  RH  068%=      5-min Rain = 0
KCR1 150244Z 17008KT 05/00 A302 RMK A01 T00530000  RH  069%=      5-min Rain = 0
KCR1 150245Z 17008KT 05/00 A302 RMK A01 T00530000  RH  069%=      5-min Rain = 0
KCR1 150246Z 17008KT 05/00 A302 RMK A01 T00530000  RH  069%=      5-min Rain = 0
KCR1 150247Z 17009KT 05/00 A302 RMK A01 T005300-0  RH  069%=      5-min Rain = 0
KCR1 150248Z 17009KT 05/00 A302 RMK A01 T00540000  RH  068%=      5-min Rain = 0
KCR1 150249Z 17009KT 05/00 A302 RMK A01 T00540000  RH  068%=      5-min Rain = 0
KCR1 150250Z 17009KT 05/00 A302 RMK A01 T00540001  RH  068%=      5-min Rain = 0
KCR1 150251Z 17008KT 05/00 A302 RMK A01 T00540001  RH  068%=      5-min Rain = 0
KCR1 150252Z 17008KT 05/00 A302 RMK A01 T00540001  RH  068%=      5-min Rain = 0
KCR1 150253Z 17009KT 05/00 A302 RMK A01 T00540001  RH  068%=      5-min Rain = 0
KCR1 150254Z 17009KT 05/00 A302 RMK A01 T00540000  RH  068%=      5-min Rain = 0
KCR1 150255Z 17008KT 05/00 A302 RMK A01 T00540000  RH  068%=      5-min Rain = 0
KCR1 150256Z 17008KT 06/00 A302 RMK A01 T00550001  RH  068%=      5-min Rain = 0
KCR1 150257Z 17008KT 05/00 A302 RMK A01 T00540001  RH  068%=      5-min Rain = 0
KCR1 150258Z 17009KT 05/00 A302 RMK A01 T00540000  RH  068%=      5-min Rain = 0
KCR1 150259Z 17009KT 06/00 A302 RMK A01 T00550000  RH  068%=      5-min Rain = 0
KCR1 150300Z 17009KT 06/00 A302 RMK A01 T00550000  RH  068%=      5-min Rain = 0
KCR1 150301Z 17008KT 06/00 A302 RMK A01 T00550001  RH  068%=      5-min Rain = 0
KCR1 150302Z 17009KT 05/00 A302 RMK A01 T00540001  RH  068%=      5-min Rain = 0
KCR1 150303Z 17009KT 05/00 A302 RMK A01 T00540000  RH  068%=      5-min Rain = 0
KCR1 150304Z 17008KT 05/00 A302 RMK A01 T00540000  RH  068%=      5-min Rain = 0
KCR1 150305Z 17009KT 05/00 A302 RMK A01 T00540001  RH  068%=      5-min Rain = 0
KCR1 150306Z 17010KT 05/00 A3019 RMK A01 T00540001  RH  069%=      5-min Rain = 0
KCR1 150307Z 17010KT 05/00 A3019 RMK A01 T00540001  RH  069%=      5-min Rain = 0
KCR1 150308Z 17010KT 05/00 A3019 RMK A01 T00540001  RH  069%=      5-min Rain = 0
KCR1 150309Z 17009KT 05/00 A3019 RMK A01 T00540001  RH  069%=      5-min Rain = 0
KCR1 150310Z 17009KT 05/00 A3019 RMK A01 T00540001  RH  069%=      5-min Rain = 0
KCR1 150311Z 17010KT 05/00 A3019 RMK A01 T00530001  RH  069%=      5-min Rain = 0
KCR1 150312Z 17010KT 05/00 A3019 RMK A01 T00530001  RH  069%=      5-min Rain = 0
KCR1 150313Z 16010KT 05/00 A3019 RMK A01 T00530001  RH  069%=      5-min Rain = 0
KCR1 150314Z 17009KT 05/00 A3019 RMK A01 T00530001  RH  069%=      5-min Rain = 0
KCR1 150315Z 16009KT 05/00 A3019 RMK A01 T00520001  RH  069%=      5-min Rain = 0
KCR1 150316Z 17009KT 05/00 A3019 RMK A01 T00520001  RH  070%=      5-min Rain = 0
KCR1 150317Z 16009KT 05/00 A3019 RMK A01 T00510001  RH  070%=      5-min Rain = 0
KCR1 150318Z 16009KT 05/00 A3019 RMK A01 T00510001  RH  070%=      5-min Rain = 0
KCR1 150319Z 17010KT 05/00 A3019 RMK A01 T00510002  RH  070%=      5-min Rain = 0
KCR1 150320Z 16009KT 05/00 A3019 RMK A01 T00510002  RH  070%=      5-min Rain = 0
KCR1 150321Z 16009KT 05/00 A3019 RMK A01 T00510002  RH  070%=      5-min Rain = 0
KCR1 150322Z 17009KT 05/00 A3019 RMK A01 T00510002  RH  071%=      5-min Rain = 0
KCR1 150323Z 17009KT 05/00 A3019 RMK A01 T00510002  RH  071%=      5-min Rain = 0
KCR1 150324Z 16009KT 05/00 A3019 RMK A01 T00510003  RH  071%=      5-min Rain = 0
KCR1 150325Z 16010KT 05/00 A3019 RMK A01 T00500002  RH  071%=      5-min Rain = 0
KCR1 150326Z 17009KT 05/00 A3019 RMK A01 T00500002  RH  071%=      5-min Rain = 0
KCR1 150327Z 17010KT 05/00 A3019 RMK A01 T00510003  RH  071%=      5-min Rain = 0
KCR1 150328Z 16010KT 05/00 A3018 RMK A01 T00510003  RH  071%=      5-min Rain = 0
KCR1 150329Z 16010KT 05/00 A3018 RMK A01 T00510003  RH  071%=      5-min Rain = 0
KCR1 150330Z 16010KT 05/00 A3018 RMK A01 T00510003  RH  071%=      5-min Rain = 0
KCR1 150331Z 16010KT 05/00 A3018 RMK A01 T00510003  RH  071%=      5-min Rain = 0
KCR1 150332Z 17011KT 05/00 A3018 RMK A01 T00510004  RH  072%=      5-min Rain = 0
KCR1 150333Z 17011KT 05/00 A3018 RMK A01 T00510004  RH  071%=      5-min Rain = 0
KCR1 150334Z 16010KT 05/00 A3018 RMK A01 T00520004  RH  071%=      5-min Rain = 0
KCR1 150335Z 17010KT 05/00 A3018 RMK A01 T00520004  RH  071%=      5-min Rain = 0
KCR1 150336Z 16010KT 05/00 A3018 RMK A01 T00520004  RH  071%=      5-min Rain = 0
KCR1 150337Z 17010KT 05/00 A3018 RMK A01 T00520004  RH  071%=      5-min Rain = 0
KCR1 150338Z 17010KT 05/00 A3018 RMK A01 T00510004  RH  071%=      5-min Rain = 0
KCR1 150339Z 17010KT 05/00 A3018 RMK A01 T00520004  RH  071%=      5-min Rain = 0
KCR1 150340Z 17011KT 05/00 A3018 RMK A01 T00520004  RH  071%=      5-min Rain = 0
KCR1 150341Z 17011KT 05/00 A3018 RMK A01 T00520004  RH  071%=      5-min Rain = 0
KCR1 150342Z 17011KT 05/01 A3018 RMK A01 T00520005  RH  071%=      5-min Rain = 0
KCR1 150343Z 17012KT 05/01 A3018 RMK A01 T00520005  RH  071%=      5-min Rain = 0
KCR1 150344Z 17011KT 05/01 A3018 RMK A01 T00530005  RH  071%=      5-min Rain = 0
KCR1 150345Z 17010KT 05/01 A3018 RMK A01 T00530005  RH  071%=      5-min Rain = 0
KCR1 150346Z 17010KT 05/01 A3018 RMK A01 T00530005  RH  071%=      5-min Rain = 0
KCR1 150347Z 17009KT 05/01 A3018 RMK A01 T00520006  RH  072%=      5-min Rain = 0
KCR1 150348Z 17010KT 05/01 A3018 RMK A01 T00520006  RH  072%=      5-min Rain = 0
KCR1 150349Z 17011KT 05/01 A3018 RMK A01 T00510005  RH  072%=      5-min Rain = 0
KCR1 150350Z 17010KT 05/01 A3018 RMK A01 T00520006  RH  072%=      5-min Rain = 0
KCR1 150351Z 17010KT 05/01 A3018 RMK A01 T00520006  RH  072%=      5-min Rain = 0
KCR1 150352Z 17010KT 05/01 A3018 RMK A01 T00520006  RH  072%=      5-min Rain = 0
KCR1 150353Z 17011KT 05/01 A3018 RMK A01 T00520006  RH  072%=      5-min Rain = 0
KCR1 150354Z 17011KT 05/01 A3018 RMK A01 T00520006  RH  072%=      5-min Rain = 0
KCR1 150355Z 17010KT 05/01 A3018 RMK A01 T00530007  RH  072%=      5-min Rain = 0
KCR1 150356Z 17010KT 05/01 A3018 RMK A01 T00530006  RH  072%=      5-min Rain = 0
KCR1 150357Z 17010KT 05/01 A3018 RMK A01 T00530006  RH  072%=      5-min Rain = 0
KCR1 150358Z 17011KT 05/01 A3018 RMK A01 T00530006  RH  072%=      5-min Rain = 0
KCR1 150359Z 17011KT 05/01 A3018 RMK A01 T00530007  RH  072%=      5-min Rain = 0
KCR1 150400Z 17010KT 05/01 A3018 RMK A01 T00540007  RH  072%=      5-min Rain = 0
KCR1 150401Z 17011KT 05/01 A3018 RMK A01 T00540007  RH  072%=      5-min Rain = 0
KCR1 150402Z 17012KT 06/01 A3018 RMK A01 T00550007  RH  071%=      5-min Rain = 0
KCR1 150403Z 17012KT 06/01 A3018 RMK A01 T00550007  RH  071%=      5-min Rain = 0
KCR1 150404Z 17012KT 06/01 A3018 RMK A01 T00560007  RH  071%=      5-min Rain = 0
KCR1 150405Z 17012KT 06/01 A3018 RMK A01 T00560007  RH  071%=      5-min Rain = 0
KCR1 150406Z 17012KT 06/01 A3018 RMK A01 T00570007  RH  071%=      5-min Rain = 0
KCR1 150407Z 17011KT 06/01 A3018 RMK A01 T00570008  RH  071%=      5-min Rain = 0
KCR1 150408Z 17012KT 06/01 A3018 RMK A01 T00560007  RH  071%=      5-min Rain = 0
KCR1 150409Z 17012KT 06/01 A3018 RMK A01 T00570007  RH  070%=      5-min Rain = 0
KCR1 150410Z 17012KT 06/01 A3018 RMK A01 T00570007  RH  070%=      5-min Rain = 0
KCR1 150411Z 17011KT 06/01 A3018 RMK A01 T00570007  RH  070%=      5-min Rain = 0
KCR1 150412Z 17012KT 06/01 A3018 RMK A01 T00570007  RH  071%=      5-min Rain = 0
KCR1 150413Z 17011KT 06/01 A3018 RMK A01 T00560007  RH  071%=      5-min Rain = 0
KCR1 150414Z 17013KT 06/01 A3018 RMK A01 T00560008  RH  071%=      5-min Rain = 0
KCR1 150415Z 17011KT 06/01 A3018 RMK A01 T00560007  RH  071%=      5-min Rain = 0
KCR1 150416Z 17011KT 06/01 A3018 RMK A01 T00560008  RH  071%=      5-min Rain = 0
KCR1 150417Z 17012KT 06/01 A3018 RMK A01 T00550007  RH  071%=      5-min Rain = 0
KCR1 150418Z 17011KT 06/01 A3018 RMK A01 T00550007  RH  071%=      5-min Rain = 0
KCR1 150419Z 18012KT 06/01 A3018 RMK A01 T00550007  RH  071%=      5-min Rain = 0
KCR1 150420Z 17011KT 06/01 A3018 RMK A01 T00560008  RH  071%=      5-min Rain = 0
KCR1 150421Z 17010KT 06/01 A3018 RMK A01 T00550008  RH  072%=      5-min Rain = 0
KCR1 150422Z 17011KT 05/01 A3018 RMK A01 T00540007  RH  072%=      5-min Rain = 0
KCR1 150423Z 18010KT 05/01 A3018 RMK A01 T00540008  RH  072%=      5-min Rain = 0
KCR1 150424Z 17011KT 05/01 A3018 RMK A01 T00540008  RH  072%=      5-min Rain = 0
KCR1 150425Z 18011KT 05/01 A3017 RMK A01 T00540008  RH  072%=      5-min Rain = 0
KCR1 150426Z 17011KT 05/01 A3017 RMK A01 T00540008  RH  072%=      5-min Rain = 0
KCR1 150427Z 17011KT 05/01 A3017 RMK A01 T00540008  RH  072%=      5-min Rain = 0
KCR1 150428Z 18011KT 05/01 A3017 RMK A01 T00540008  RH  072%=      5-min Rain = 0
KCR1 150429Z 18010KT 05/01 A3017 RMK A01 T00540008  RH  072%=      5-min Rain = 0
KCR1 150430Z 18011KT 05/01 A3017 RMK A01 T00540008  RH  072%=      5-min Rain = 0
KCR1 150431Z 18011KT 05/01 A3017 RMK A01 T00530007  RH  072%=      5-min Rain = 0
KCR1 150432Z 18011KT 05/01 A3017 RMK A01 T00530007  RH  072%=      5-min Rain = 0
KCR1 150433Z 17011KT 05/01 A3017 RMK A01 T00530007  RH  072%=      5-min Rain = 0
KCR1 150434Z 18011KT 05/01 A3017 RMK A01 T00530008  RH  073%=      5-min Rain = 0
KCR1 150435Z 18012KT 05/01 A3017 RMK A01 T00520008  RH  073%=      5-min Rain = 0
KCR1 150436Z 18011KT 05/01 A3017 RMK A01 T00520008  RH  073%=      5-min Rain = 0
KCR1 150437Z 18011KT 05/01 A3017 RMK A01 T00520007  RH  073%=      5-min Rain = 0
KCR1 150438Z 18011KT 05/01 A3017 RMK A01 T00520007  RH  073%=      5-min Rain = 0
KCR1 150439Z 18012KT 05/01 A3017 RMK A01 T00510007  RH  073%=      5-min Rain = 0
KCR1 150440Z 18012KT 05/01 A3017 RMK A01 T00520008  RH  073%=      5-min Rain = 0
KCR1 150441Z 18013KT 05/01 A3017 RMK A01 T00520008  RH  073%=      5-min Rain = 0
KCR1 150442Z 17012KT 05/01 A3017 RMK A01 T00530008  RH  073%=      5-min Rain = 0
KCR1 150443Z 18012KT 05/01 A3017 RMK A01 T00530008  RH  073%=      5-min Rain = 0
KCR1 150444Z 17013KT 05/01 A3017 RMK A01 T00530008  RH  073%=      5-min Rain = 0
KCR1 150445Z 18012KT 05/01 A3017 RMK A01 T00540008  RH  072%=      5-min Rain = 0
KCR1 150446Z 18014KT 05/01 A3017 RMK A01 T00540008  RH  072%=      5-min Rain = 0
KCR1 150447Z 18013KT 06/01 A3017 RMK A01 T00550008  RH  072%=      5-min Rain = 0
KCR1 150448Z 18013KT 06/01 A3017 RMK A01 T00550009  RH  072%=      5-min Rain = 0
KCR1 150449Z 18012KT 06/01 A3017 RMK A01 T00550008  RH  072%=      5-min Rain = 0
KCR1 150450Z 17013KT 06/01 A3017 RMK A01 T00550008  RH  072%=      5-min Rain = 0
KCR1 150451Z 17013KT 06/01 A3016 RMK A01 T00550008  RH  072%=      5-min Rain = 0
KCR1 150452Z 17013KT 06/01 A3017 RMK A01 T00550008  RH  072%=      5-min Rain = 0
KCR1 150453Z 18012KT 06/01 A3016 RMK A01 T00550008  RH  072%=      5-min Rain = 0
KCR1 150454Z 17012KT 06/01 A3017 RMK A01 T00550008  RH  072%=      5-min Rain = 0
KCR1 150455Z 17012KT 06/01 A3016 RMK A01 T00550009  RH  072%=      5-min Rain = 0
KCR1 150456Z 17012KT 05/01 A3016 RMK A01 T00540008  RH  072%=      5-min Rain = 0
KCR1 150457Z 17012KT 05/01 A3016 RMK A01 T00540009  RH  073%=      5-min Rain = 0
KCR1 150458Z 17012KT 05/01 A3016 RMK A01 T00530008  RH  073%=      5-min Rain = 0
KCR1 150459Z 18012KT 05/01 A3016 RMK A01 T00530009  RH  073%=      5-min Rain = 0
KCR1 150500Z 18011KT 05/01 A3016 RMK A01 T00530009  RH  073%=      5-min Rain = 0
KCR1 150501Z 18012KT 05/01 A3016 RMK A01 T00530009  RH  073%=      5-min Rain = 0
KCR1 150502Z 18012KT 05/01 A3016 RMK A01 T00520009  RH  073%=      5-min Rain = 0
KCR1 150503Z 18012KT 05/01 A3016 RMK A01 T00520009  RH  073%=      5-min Rain = 0
KCR1 150504Z 18011KT 05/01 A3016 RMK A01 T00530009  RH  073%=      5-min Rain = 0
KCR1 150505Z 18012KT 05/01 A3017 RMK A01 T00530009  RH  073%=      5-min Rain = 0
KCR1 150506Z 18012KT 05/01 A3016 RMK A01 T00520009  RH  073%=      5-min Rain = 0
KCR1 150507Z 18012KT 05/01 A3016 RMK A01 T00530009  RH  073%=      5-min Rain = 0
KCR1 150508Z 18012KT 05/01 A3017 RMK A01 T00540009  RH  073%=      5-min Rain = 0
KCR1 150509Z 18012KT 05/01 A3017 RMK A01 T00540009  RH  073%=      5-min Rain = 0
KCR1 150510Z 18012KT 05/01 A3017 RMK A01 T00540009  RH  073%=      5-min Rain = 0
KCR1 150511Z 18011KT 05/01 A3017 RMK A01 T00540009  RH  073%=      5-min Rain = 0
KCR1 150512Z 18013KT 05/01 A3016 RMK A01 T00540009  RH  073%=      5-min Rain = 0
KCR1 150513Z 18011KT 05/01 A3017 RMK A01 T00540009  RH  073%=      5-min Rain = 0
KCR1 150514Z 18011KT 05/01 A3017 RMK A01 T00540009  RH  072%=      5-min Rain = 0
KCR1 150515Z 18010KT 05/01 A3017 RMK A01 T00540008  RH  072%=      5-min Rain = 0
KCR1 150516Z 18011KT 05/01 A3017 RMK A01 T00540009  RH  073%=      5-min Rain = 0
KCR1 150517Z 18012KT 05/01 A3017 RMK A01 T00540009  RH  073%=      5-min Rain = 0
KCR1 150518Z 18011KT 05/01 A3017 RMK A01 T00540009  RH  073%=      5-min Rain = 0
KCR1 150519Z 18010KT 05/01 A3017 RMK A01 T00540009  RH  073%=      5-min Rain = 0
KCR1 150520Z 18011KT 05/01 A3017 RMK A01 T00540009  RH  073%=      5-min Rain = 0
KCR1 150521Z 18011KT 05/01 A3017 RMK A01 T00530009  RH  073%=      5-min Rain = 0
KCR1 150522Z 18011KT 05/01 A3017 RMK A01 T00530009  RH  073%=      5-min Rain = 0
KCR1 150523Z 18010KT 05/01 A3017 RMK A01 T00530009  RH  074%=      5-min Rain = 0
KCR1 150524Z 18011KT 05/01 A3017 RMK A01 T00530009  RH  073%=      5-min Rain = 0
KCR1 150525Z 18010KT 05/01 A3017 RMK A01 T00530009  RH  073%=      5-min Rain = 0
KCR1 150526Z 18011KT 05/01 A3017 RMK A01 T00520009  RH  074%=      5-min Rain = 0
KCR1 150527Z 18012KT 05/01 A3017 RMK A01 T00520009  RH  074%=      5-min Rain = 0
KCR1 150528Z 18011KT 05/01 A3017 RMK A01 T00520010  RH  074%=      5-min Rain = 0
KCR1 150529Z 18011KT 05/01 A3017 RMK A01 T00520010  RH  074%=      5-min Rain = 0
KCR1 150530Z 18011KT 05/01 A3017 RMK A01 T00520010  RH  074%=      5-min Rain = 0
KCR1 150531Z 18011KT 05/01 A3017 RMK A01 T00520010  RH  074%=      5-min Rain = 0
KCR1 150532Z 18011KT 05/01 A3017 RMK A01 T00510010  RH  074%=      5-min Rain = 0
KCR1 150533Z 18011KT 05/01 A3017 RMK A01 T00510010  RH  074%=      5-min Rain = 0
KCR1 150534Z 18011KT 05/01 A3017 RMK A01 T00510010  RH  075%=      5-min Rain = 0
KCR1 150535Z 18011KT 05/01 A3017 RMK A01 T00510010  RH  075%=      5-min Rain = 0
KCR1 150536Z 18010KT 05/01 A3016 RMK A01 T00510010  RH  075%=      5-min Rain = 0
KCR1 150537Z 18011KT 05/01 A3016 RMK A01 T00500010  RH  075%=      5-min Rain = 0
KCR1 150538Z 18012KT 05/01 A3016 RMK A01 T00500010  RH  075%=      5-min Rain = 0
KCR1 150539Z 18011KT 05/01 A3016 RMK A01 T00510010  RH  075%=      5-min Rain = 0
KCR1 150540Z 18010KT 05/01 A3016 RMK A01 T00500010  RH  075%=      5-min Rain = 0
KCR1 150541Z 18010KT 05/01 A3016 RMK A01 T00490010  RH  076%=      5-min Rain = 0
KCR1 150542Z 18011KT 05/01 A3016 RMK A01 T00490010  RH  076%=      5-min Rain = 0
KCR1 150543Z 18010KT 05/01 A3016 RMK A01 T00480010  RH  076%=      5-min Rain = 0
KCR1 150544Z 18011KT 05/01 A3016 RMK A01 T00470010  RH  077%=      5-min Rain = 0
KCR1 150545Z 18010KT 05/01 A3016 RMK A01 T00470010  RH  077%=      5-min Rain = 0
KCR1 150546Z 18010KT 05/01 A3016 RMK A01 T00470010  RH  077%=      5-min Rain = 0
KCR1 150547Z 18010KT 05/01 A3016 RMK A01 T00470010  RH  077%=      5-min Rain = 0
KCR1 150548Z 18010KT 05/01 A3016 RMK A01 T00470010  RH  077%=      5-min Rain = 0
KCR1 150549Z 17010KT 05/01 A3016 RMK A01 T00470010  RH  077%=      5-min Rain = 0
KCR1 150550Z 18011KT 05/01 A3016 RMK A01 T00470011  RH  077%=      5-min Rain = 0
KCR1 150551Z 18011KT 05/01 A3016 RMK A01 T00470010  RH  077%=      5-min Rain = 0
KCR1 150552Z 18011KT 05/01 A3016 RMK A01 T00470011  RH  077%=      5-min Rain = 0
KCR1 150553Z 17011KT 05/01 A3016 RMK A01 T00480011  RH  077%=      5-min Rain = 0
KCR1 150554Z 17012KT 05/01 A3016 RMK A01 T00470010  RH  077%=      5-min Rain = 0
KCR1 150555Z 18011KT 05/01 A3016 RMK A01 T00470010  RH  077%=      5-min Rain = 0
KCR1 150556Z 18011KT 05/01 A3015 RMK A01 T00480011  RH  077%=      5-min Rain = 0
KCR1 150557Z 18011KT 05/01 A3015 RMK A01 T00470011  RH  077%=      5-min Rain = 0
KCR1 150558Z 18011KT 05/01 A3015 RMK A01 T00470011  RH  077%=      5-min Rain = 0
KCR1 150559Z 18012KT 05/01 A3015 RMK A01 T00470011  RH  078%=      5-min Rain = 0

Page generated in 0.0733 seconds.